Time,TemperatureF,DewpointF,PressureIn,WindDirection,WindDirectionDegrees,WindSpeedMPH,WindSpeedGustMPH,Humidity,HourlyPrecipIn,Conditions,Clouds,dailyrainin,SoftwareType,DateUTC
2013-01-11 00:00:00,43.9,30.5,29.12,SSW,202,0.0,0.0,59,0.00,,,0.00,VWS V14.00,2013-01-11 06:00:00,
2013-01-11 00:01:00,43.7,30.7,29.12,SSW,202,0.0,0.0,60,0.00,,,0.00,VWS V14.00,2013-01-11 06:01:00,
2013-01-11 00:03:00,43.5,31.0,29.15,SSW,202,0.0,0.0,61,0.00,,,0.00,VWS V14.00,2013-01-11 06:03:00,
2013-01-11 00:04:00,43.9,31.3,29.15,SSW,202,0.0,0.0,61,0.00,,,0.00,VWS V14.00,2013-01-11 06:04:00,
2013-01-11 00:05:00,45.3,33.1,29.15,SSW,202,0.0,0.0,62,0.00,,,0.00,VWS V14.00,2013-01-11 06:05:00,
2013-01-11 00:07:00,45.3,33.9,29.15,SSW,202,0.0,0.0,64,0.00,,,0.00,VWS V14.00,2013-01-11 06:07:00,
2013-01-11 00:08:00,45.5,34.8,29.15,SSW,202,3.6,3.6,66,0.00,,,0.00,VWS V14.00,2013-01-11 06:08:00,
2013-01-11 00:09:00,46.6,37.3,29.15,South,191,3.6,4.0,70,0.00,,,0.00,VWS V14.00,2013-01-11 06:09:00,
2013-01-11 00:11:00,46.8,37.9,29.15,South,190,4.9,4.9,71,0.00,,,0.00,VWS V14.00,2013-01-11 06:11:00,
2013-01-11 00:13:00,47.3,39.1,29.15,SSW,203,4.0,4.9,73,0.00,,,0.00,VWS V14.00,2013-01-11 06:13:00,
2013-01-11 00:15:00,47.3,38.7,29.15,SSW,203,4.0,5.8,72,0.00,,,0.00,VWS V14.00,2013-01-11 06:15:00,
2013-01-11 00:16:00,47.5,38.2,29.15,SSW,195,4.0,4.9,70,0.00,,,0.00,VWS V14.00,2013-01-11 06:16:00,
2013-01-11 00:18:00,47.5,37.1,29.15,SSW,205,3.6,4.9,67,0.00,,,0.00,VWS V14.00,2013-01-11 06:18:00,
2013-01-11 00:20:00,47.1,34.4,29.15,SSW,205,3.1,4.9,61,0.00,,,0.00,VWS V14.00,2013-01-11 06:20:00,
2013-01-11 00:21:00,46.9,33.8,29.15,SSW,205,0.0,4.9,60,0.00,,,0.00,VWS V14.00,2013-01-11 06:21:00,
2013-01-11 00:22:00,46.6,31.7,29.15,SSW,205,0.0,4.9,56,0.00,,,0.00,VWS V14.00,2013-01-11 06:22:00,
2013-01-11 00:24:00,46.0,28.5,29.15,SSW,205,0.0,4.9,50,0.00,,,0.00,VWS V14.00,2013-01-11 06:24:00,
2013-01-11 00:26:00,45.3,25.2,29.15,SSW,205,0.0,4.9,45,0.00,,,0.00,VWS V14.00,2013-01-11 06:26:00,
2013-01-11 00:27:00,45.1,24.0,29.15,SSW,205,0.0,4.9,43,0.00,,,0.00,VWS V14.00,2013-01-11 06:27:00,
2013-01-11 00:29:00,45.0,22.7,29.15,SSW,205,0.0,4.9,41,0.00,,,0.00,VWS V14.00,2013-01-11 06:29:00,
2013-01-11 00:31:00,44.8,22.5,29.15,SSW,205,0.0,0.0,41,0.00,,,0.00,VWS V14.00,2013-01-11 06:31:00,
2013-01-11 00:32:00,44.6,24.0,29.15,SSW,205,0.0,0.0,44,0.00,,,0.00,VWS V14.00,2013-01-11 06:32:00,
2013-01-11 00:35:00,44.6,27.1,29.15,SSW,205,0.0,0.0,50,0.00,,,0.00,VWS V14.00,2013-01-11 06:35:00,
2013-01-11 00:36:00,44.2,28.7,29.15,SSW,205,0.0,0.0,54,0.00,,,0.00,VWS V14.00,2013-01-11 06:36:00,
2013-01-11 00:37:00,44.2,29.1,29.15,SSW,205,0.0,0.0,55,0.00,,,0.00,VWS V14.00,2013-01-11 06:37:00,
2013-01-11 00:38:00,44.2,29.1,29.15,SSW,205,0.0,0.0,55,0.00,,,0.00,VWS V14.00,2013-01-11 06:38:00,
2013-01-11 00:40:00,43.7,29.5,29.15,SSW,204,0.0,0.0,57,0.00,,,0.00,VWS V14.00,2013-01-11 06:40:00,
2013-01-11 00:42:00,43.7,29.9,29.15,SSW,205,0.0,0.0,58,0.00,,,0.00,VWS V14.00,2013-01-11 06:42:00,
2013-01-11 00:43:00,43.7,29.9,29.15,SSW,205,0.0,0.0,58,0.00,,,0.00,VWS V14.00,2013-01-11 06:43:00,
2013-01-11 00:46:00,43.0,27.0,29.15,SSW,204,0.0,0.0,53,0.00,,,0.00,VWS V14.00,2013-01-11 06:46:00,
2013-01-11 00:48:00,42.4,25.6,29.15,SSW,205,0.0,0.0,51,0.00,,,0.00,VWS V14.00,2013-01-11 06:48:00,
2013-01-11 00:49:00,42.3,25.0,29.15,SSW,205,0.0,0.0,50,0.00,,,0.00,VWS V14.00,2013-01-11 06:49:00,
2013-01-11 00:51:00,42.1,26.2,29.15,SSW,205,0.0,0.0,53,0.00,,,0.00,VWS V14.00,2013-01-11 06:51:00,
2013-01-11 00:53:00,42.1,27.5,29.15,SSW,205,0.0,0.0,56,0.00,,,0.00,VWS V14.00,2013-01-11 06:53:00,
2013-01-11 00:54:00,42.1,27.5,29.15,SSW,205,0.0,0.0,56,0.00,,,0.00,VWS V14.00,2013-01-11 06:54:00,
2013-01-11 00:57:00,42.3,30.2,29.15,SSW,205,0.0,0.0,62,0.00,,,0.00,VWS V14.00,2013-01-11 06:57:00,
2013-01-11 00:58:00,42.4,31.1,29.15,SSW,205,0.0,0.0,64,0.00,,,0.00,VWS V14.00,2013-01-11 06:58:00,
2013-01-11 00:59:00,42.6,31.7,29.15,SSW,205,0.0,0.0,65,0.00,,,0.00,VWS V14.00,2013-01-11 06:59:00,
2013-01-11 01:01:00,42.4,32.6,29.15,SSW,205,0.0,0.0,68,0.00,,,0.00,VWS V14.00,2013-01-11 07:01:00,
2013-01-11 01:02:00,42.4,32.6,29.15,SSW,205,0.0,0.0,68,0.00,,,0.00,VWS V14.00,2013-01-11 07:02:00,
2013-01-11 01:03:00,42.4,33.0,29.15,SSW,205,0.0,0.0,69,0.00,,,0.00,VWS V14.00,2013-01-11 07:03:00,
2013-01-11 01:04:00,42.3,32.8,29.15,SSW,205,0.0,0.0,69,0.00,,,0.00,VWS V14.00,2013-01-11 07:04:00,
2013-01-11 01:07:00,41.9,32.8,29.15,SSW,205,0.0,0.0,70,0.00,,,0.00,VWS V14.00,2013-01-11 07:07:00,
2013-01-11 01:09:00,41.7,32.7,29.15,SSW,205,0.0,0.0,70,0.00,,,0.00,VWS V14.00,2013-01-11 07:09:00,
2013-01-11 01:10:00,41.7,32.7,29.15,SSW,205,0.0,0.0,70,0.00,,,0.00,VWS V14.00,2013-01-11 07:10:00,
2013-01-11 01:12:00,41.7,32.0,29.15,SSW,205,0.0,0.0,68,0.00,,,0.00,VWS V14.00,2013-01-11 07:12:00,
2013-01-11 01:15:00,41.5,31.8,29.15,SSW,204,0.0,0.0,68,0.00,,,0.00,VWS V14.00,2013-01-11 07:15:00,
2013-01-11 01:16:00,41.5,32.1,29.15,SSW,205,0.0,0.0,69,0.00,,,0.00,VWS V14.00,2013-01-11 07:16:00,
2013-01-11 01:18:00,41.7,32.7,29.15,SSW,205,0.0,0.0,70,0.00,,,0.00,VWS V14.00,2013-01-11 07:18:00,
2013-01-11 01:20:00,41.7,32.7,29.15,SSW,205,0.0,0.0,70,0.00,,,0.00,VWS V14.00,2013-01-11 07:20:00,
2013-01-11 01:21:00,41.7,33.0,29.15,SSW,205,0.0,0.0,71,0.00,,,0.00,VWS V14.00,2013-01-11 07:21:00,
2013-01-11 01:23:00,41.7,33.0,29.15,SSW,205,0.0,0.0,71,0.00,,,0.00,VWS V14.00,2013-01-11 07:23:00,
2013-01-11 01:25:00,41.7,33.0,29.15,SSW,205,0.0,0.0,71,0.00,,,0.00,VWS V14.00,2013-01-11 07:25:00,
2013-01-11 01:26:00,41.7,33.0,29.15,SSW,204,0.0,0.0,71,0.00,,,0.00,VWS V14.00,2013-01-11 07:26:00,
2013-01-11 01:28:00,41.7,32.7,29.15,SSW,205,0.0,0.0,70,0.00,,,0.00,VWS V14.00,2013-01-11 07:28:00,
2013-01-11 01:31:00,41.2,31.1,29.15,SSW,205,0.0,0.0,67,0.00,,,0.00,VWS V14.00,2013-01-11 07:31:00,
2013-01-11 01:32:00,41.0,30.9,29.18,SSW,205,0.0,0.0,67,0.00,,,0.00,VWS V14.00,2013-01-11 07:32:00,
2013-01-11 01:34:00,40.8,30.7,29.18,SSW,205,0.0,0.0,67,0.00,,,0.00,VWS V14.00,2013-01-11 07:34:00,
2013-01-11 01:36:00,40.8,30.4,29.18,SSW,205,0.0,0.0,66,0.00,,,0.00,VWS V14.00,2013-01-11 07:36:00,
2013-01-11 01:39:00,40.8,30.0,29.18,SSW,205,0.0,0.0,65,0.00,,,0.00,VWS V14.00,2013-01-11 07:39:00,
2013-01-11 01:40:00,40.8,30.0,29.18,SSW,205,0.0,0.0,65,0.00,,,0.00,VWS V14.00,2013-01-11 07:40:00,
2013-01-11 01:42:00,40.6,29.8,29.18,SSW,205,0.0,0.0,65,0.00,,,0.00,VWS V14.00,2013-01-11 07:42:00,
2013-01-11 01:45:00,40.6,30.9,29.18,SSW,205,0.0,0.0,68,0.00,,,0.00,VWS V14.00,2013-01-11 07:45:00,
2013-01-11 01:48:00,40.8,32.2,29.18,SSW,205,0.0,0.0,71,0.00,,,0.00,VWS V14.00,2013-01-11 07:48:00,
2013-01-11 01:50:00,40.6,32.0,29.18,SSW,205,0.0,0.0,71,0.00,,,0.00,VWS V14.00,2013-01-11 07:50:00,
2013-01-11 01:51:00,40.6,32.0,29.18,SSW,205,0.0,0.0,71,0.00,,,0.00,VWS V14.00,2013-01-11 07:51:00,
2013-01-11 01:53:00,40.6,32.0,29.18,SSW,205,0.0,0.0,71,0.00,,,0.00,VWS V14.00,2013-01-11 07:53:00,
2013-01-11 01:56:00,40.8,32.5,29.18,SSW,205,0.0,0.0,72,0.00,,,0.00,VWS V14.00,2013-01-11 07:56:00,
2013-01-11 01:57:00,41.0,32.7,29.18,SSW,205,0.0,0.0,72,0.00,,,0.00,VWS V14.00,2013-01-11 07:57:00,
2013-01-11 01:59:00,41.2,32.8,29.18,SSW,205,0.0,0.0,72,0.00,,,0.00,VWS V14.00,2013-01-11 07:59:00,
2013-01-11 02:02:00,41.7,34.1,29.18,SSW,205,0.0,0.0,74,0.00,,,0.00,VWS V14.00,2013-01-11 08:02:00,
2013-01-11 02:03:00,41.7,33.7,29.18,SSW,205,0.0,0.0,73,0.00,,,0.00,VWS V14.00,2013-01-11 08:03:00,
2013-01-11 02:04:00,41.7,33.7,29.18,SSW,205,0.0,0.0,73,0.00,,,0.00,VWS V14.00,2013-01-11 08:04:00,
2013-01-11 02:05:00,41.5,33.5,29.18,SSW,205,0.0,0.0,73,0.00,,,0.00,VWS V14.00,2013-01-11 08:05:00,
2013-01-11 02:08:00,41.2,32.5,29.18,SSW,205,0.0,0.0,71,0.00,,,0.00,VWS V14.00,2013-01-11 08:08:00,
2013-01-11 02:09:00,41.0,32.3,29.18,SSW,205,0.0,0.0,71,0.00,,,0.00,VWS V14.00,2013-01-11 08:09:00,
2013-01-11 02:10:00,40.8,32.2,29.18,SSW,205,0.0,0.0,71,0.00,,,0.00,VWS V14.00,2013-01-11 08:10:00,
2013-01-11 02:11:00,40.8,32.2,29.18,SSW,205,0.0,0.0,71,0.00,,,0.00,VWS V14.00,2013-01-11 08:11:00,
2013-01-11 02:15:00,41.2,32.8,29.18,SSW,205,0.0,0.0,72,0.00,,,0.00,VWS V14.00,2013-01-11 08:15:00,
2013-01-11 02:16:00,41.2,32.8,29.18,SSW,205,0.0,0.0,72,0.00,,,0.00,VWS V14.00,2013-01-11 08:16:00,
2013-01-11 02:17:00,41.5,33.5,29.18,SSW,205,0.0,0.0,73,0.00,,,0.00,VWS V14.00,2013-01-11 08:17:00,
2013-01-11 02:21:00,42.4,36.1,29.18,SSW,205,0.0,0.0,78,0.00,,,0.00,VWS V14.00,2013-01-11 08:21:00,
2013-01-11 02:22:00,42.3,36.2,29.18,SSW,205,0.0,0.0,79,0.00,,,0.00,VWS V14.00,2013-01-11 08:22:00,
2013-01-11 02:26:00,41.7,35.4,29.18,SSW,205,0.0,0.0,78,0.00,,,0.00,VWS V14.00,2013-01-11 08:26:00,
2013-01-11 02:28:00,41.5,34.9,29.18,SSW,205,0.0,0.0,77,0.00,,,0.00,VWS V14.00,2013-01-11 08:28:00,
2013-01-11 02:31:00,41.5,34.5,29.18,SSW,205,0.0,0.0,76,0.00,,,0.00,VWS V14.00,2013-01-11 08:31:00,
2013-01-11 02:32:00,41.5,34.2,29.18,SSW,205,0.0,0.0,75,0.00,,,0.00,VWS V14.00,2013-01-11 08:32:00,
2013-01-11 02:33:00,41.4,33.7,29.18,SSW,205,0.0,0.0,74,0.00,,,0.00,VWS V14.00,2013-01-11 08:33:00,
2013-01-11 02:34:00,41.2,33.5,29.18,SSW,205,0.0,0.0,74,0.00,,,0.00,VWS V14.00,2013-01-11 08:34:00,
2013-01-11 02:36:00,40.8,32.8,29.18,SSW,205,0.0,0.0,73,0.00,,,0.00,VWS V14.00,2013-01-11 08:36:00,
2013-01-11 02:38:00,40.6,32.7,29.18,SSW,205,0.0,0.0,73,0.00,,,0.00,VWS V14.00,2013-01-11 08:38:00,
2013-01-11 02:40:00,40.6,32.7,29.18,SSW,205,0.0,0.0,73,0.00,,,0.00,VWS V14.00,2013-01-11 08:40:00,
2013-01-11 02:42:00,40.8,32.8,29.18,SSW,205,0.0,0.0,73,0.00,,,0.00,VWS V14.00,2013-01-11 08:42:00,
2013-01-11 02:43:00,40.8,33.2,29.18,SSW,205,0.0,0.0,74,0.00,,,0.00,VWS V14.00,2013-01-11 08:43:00,
2013-01-11 02:45:00,40.6,33.0,29.18,SSW,205,0.0,0.0,74,0.00,,,0.00,VWS V14.00,2013-01-11 08:45:00,
2013-01-11 02:48:00,40.8,33.5,29.18,SSW,205,0.0,0.0,75,0.00,,,0.00,VWS V14.00,2013-01-11 08:48:00,
2013-01-11 02:49:00,40.8,33.5,29.18,SSW,205,0.0,0.0,75,0.00,,,0.00,VWS V14.00,2013-01-11 08:49:00,
2013-01-11 02:52:00,40.8,33.8,29.18,SSW,205,0.0,0.0,76,0.00,,,0.00,VWS V14.00,2013-01-11 08:52:00,
2013-01-11 02:53:00,41.2,34.5,29.18,SSW,205,0.0,0.0,77,0.00,,,0.00,VWS V14.00,2013-01-11 08:53:00,
2013-01-11 02:54:00,41.2,34.5,29.18,SSW,205,0.0,0.0,77,0.00,,,0.00,VWS V14.00,2013-01-11 08:54:00,
2013-01-11 02:55:00,41.2,34.5,29.18,SSW,205,0.0,0.0,77,0.00,,,0.00,VWS V14.00,2013-01-11 08:55:00,
2013-01-11 02:57:00,41.2,34.5,29.18,SSW,205,0.0,0.0,77,0.00,,,0.00,VWS V14.00,2013-01-11 08:57:00,
2013-01-11 02:59:00,41.4,34.4,29.18,SSW,205,0.0,0.0,76,0.00,,,0.00,VWS V14.00,2013-01-11 08:59:00,
2013-01-11 03:02:00,41.4,34.4,29.18,SSW,205,0.0,0.0,76,0.00,,,0.00,VWS V14.00,2013-01-11 09:02:00,
2013-01-11 03:04:00,41.2,34.5,29.18,SSW,205,0.0,0.0,77,0.00,,,0.00,VWS V14.00,2013-01-11 09:04:00,
2013-01-11 03:05:00,41.2,34.5,29.18,SSW,205,0.0,0.0,77,0.00,,,0.00,VWS V14.00,2013-01-11 09:05:00,
2013-01-11 03:08:00,41.0,34.3,29.18,SSW,205,0.0,0.0,77,0.00,,,0.00,VWS V14.00,2013-01-11 09:08:00,
2013-01-11 03:10:00,40.8,34.2,29.18,SSW,205,0.0,0.0,77,0.00,,,0.00,VWS V14.00,2013-01-11 09:10:00,
2013-01-11 03:13:00,41.0,34.3,29.18,SSW,205,0.0,0.0,77,0.00,,,0.00,VWS V14.00,2013-01-11 09:13:00,
2013-01-11 03:14:00,41.0,34.3,29.18,SSW,205,0.0,0.0,77,0.00,,,0.00,VWS V14.00,2013-01-11 09:14:00,
2013-01-11 03:15:00,41.2,34.5,29.18,SSW,205,0.0,0.0,77,0.00,,,0.00,VWS V14.00,2013-01-11 09:15:00,
2013-01-11 03:16:00,41.2,34.8,29.15,SSW,205,0.0,0.0,78,0.00,,,0.00,VWS V14.00,2013-01-11 09:16:00,
2013-01-11 03:18:00,41.2,34.5,29.15,SSW,205,0.0,0.0,77,0.00,,,0.00,VWS V14.00,2013-01-11 09:18:00,
2013-01-11 03:19:00,41.0,34.3,29.15,SSW,205,0.0,0.0,77,0.00,,,0.00,VWS V14.00,2013-01-11 09:19:00,
2013-01-11 03:21:00,40.8,34.2,29.15,SSW,205,0.0,0.0,77,0.00,,,0.00,VWS V14.00,2013-01-11 09:21:00,
2013-01-11 03:22:00,40.6,33.7,29.15,SSW,205,0.0,0.0,76,0.00,,,0.00,VWS V14.00,2013-01-11 09:22:00,
2013-01-11 03:23:00,40.6,33.7,29.15,SSW,205,0.0,0.0,76,0.00,,,0.00,VWS V14.00,2013-01-11 09:23:00,
2013-01-11 03:25:00,40.6,33.7,29.15,SSW,205,0.0,0.0,76,0.00,,,0.00,VWS V14.00,2013-01-11 09:25:00,
2013-01-11 03:26:00,40.6,33.7,29.15,SSW,205,0.0,0.0,76,0.00,,,0.00,VWS V14.00,2013-01-11 09:26:00,
2013-01-11 03:28:00,40.6,33.7,29.15,SSW,205,0.0,0.0,76,0.00,,,0.00,VWS V14.00,2013-01-11 09:28:00,
2013-01-11 03:30:00,40.6,33.7,29.15,SSW,205,0.0,0.0,76,0.00,,,0.00,VWS V14.00,2013-01-11 09:30:00,
2013-01-11 03:32:00,40.8,33.8,29.15,SSW,205,0.0,0.0,76,0.00,,,0.00,VWS V14.00,2013-01-11 09:32:00,
2013-01-11 03:33:00,41.0,34.0,29.15,SSW,205,0.0,0.0,76,0.00,,,0.00,VWS V14.00,2013-01-11 09:33:00,
2013-01-11 03:34:00,41.0,34.0,29.15,SSW,205,0.0,0.0,76,0.00,,,0.00,VWS V14.00,2013-01-11 09:34:00,
2013-01-11 03:35:00,41.0,34.0,29.15,SSW,205,0.0,0.0,76,0.00,,,0.00,VWS V14.00,2013-01-11 09:35:00,
2013-01-11 03:37:00,41.0,34.3,29.15,SSW,205,0.0,0.0,77,0.00,,,0.00,VWS V14.00,2013-01-11 09:37:00,
2013-01-11 03:39:00,41.0,34.3,29.15,SSW,205,0.0,0.0,77,0.00,,,0.00,VWS V14.00,2013-01-11 09:39:00,
2013-01-11 03:40:00,41.0,34.3,29.15,SSW,205,0.0,0.0,77,0.00,,,0.00,VWS V14.00,2013-01-11 09:40:00,
2013-01-11 03:42:00,40.8,34.2,29.15,SSW,205,0.0,0.0,77,0.00,,,0.00,VWS V14.00,2013-01-11 09:42:00,
2013-01-11 03:45:00,40.6,34.0,29.15,SSW,205,0.0,0.0,77,0.00,,,0.00,VWS V14.00,2013-01-11 09:45:00,
2013-01-11 03:48:00,40.6,33.7,29.12,SSW,205,0.0,0.0,76,0.00,,,0.00,VWS V14.00,2013-01-11 09:48:00,
2013-01-11 03:51:00,40.5,33.8,29.12,SSW,205,0.0,0.0,77,0.00,,,0.00,VWS V14.00,2013-01-11 09:51:00,
2013-01-11 03:52:00,40.5,33.8,29.12,SSW,205,0.0,0.0,77,0.00,,,0.00,VWS V14.00,2013-01-11 09:52:00,
2013-01-11 03:54:00,40.6,34.3,29.12,SSW,205,0.0,0.0,78,0.00,,,0.00,VWS V14.00,2013-01-11 09:54:00,
2013-01-11 03:56:00,41.2,34.8,29.12,SSW,205,0.0,0.0,78,0.00,,,0.00,VWS V14.00,2013-01-11 09:56:00,
2013-01-11 03:57:00,41.5,35.2,29.12,SSW,205,0.0,0.0,78,0.00,,,0.00,VWS V14.00,2013-01-11 09:57:00,
2013-01-11 04:00:00,41.4,35.0,29.12,SSW,205,0.0,0.0,78,0.00,,,0.00,VWS V14.00,2013-01-11 10:00:00,
2013-01-11 04:01:00,41.2,34.8,29.09,SSW,205,0.0,0.0,78,0.00,,,0.00,VWS V14.00,2013-01-11 10:01:00,
2013-01-11 04:02:00,41.2,34.5,29.09,SSW,205,0.0,0.0,77,0.00,,,0.00,VWS V14.00,2013-01-11 10:02:00,
2013-01-11 04:04:00,41.4,34.7,29.09,SSW,205,0.0,0.0,77,0.00,,,0.00,VWS V14.00,2013-01-11 10:04:00,
2013-01-11 04:06:00,43.0,36.3,29.09,SSW,205,0.0,0.0,77,0.00,,,0.00,VWS V14.00,2013-01-11 10:06:00,
2013-01-11 04:07:00,42.8,36.1,29.09,SSW,205,0.0,0.0,77,0.00,,,0.00,VWS V14.00,2013-01-11 10:07:00,
2013-01-11 04:09:00,42.4,36.1,29.09,SSW,205,0.0,0.0,78,0.00,,,0.00,VWS V14.00,2013-01-11 10:09:00,
2013-01-11 04:12:00,42.8,36.4,29.09,SSW,205,0.0,0.0,78,0.00,,,0.00,VWS V14.00,2013-01-11 10:12:00,
2013-01-11 04:13:00,43.0,36.6,29.09,SSW,205,0.0,0.0,78,0.00,,,0.00,VWS V14.00,2013-01-11 10:13:00,
2013-01-11 04:14:00,43.3,37.0,29.09,SSW,205,0.0,0.0,78,0.00,,,0.00,VWS V14.00,2013-01-11 10:14:00,
2013-01-11 04:17:00,42.8,36.8,29.09,SSW,206,0.0,0.0,79,0.00,,,0.00,VWS V14.00,2013-01-11 10:17:00,
2013-01-11 04:18:00,42.3,35.9,29.09,SSW,206,0.0,0.0,78,0.00,,,0.00,VWS V14.00,2013-01-11 10:18:00,
2013-01-11 04:19:00,42.1,35.7,29.09,SSW,206,0.0,0.0,78,0.00,,,0.00,VWS V14.00,2013-01-11 10:19:00,
2013-01-11 04:22:00,41.9,35.5,29.09,SSW,206,0.0,0.0,78,0.00,,,0.00,VWS V14.00,2013-01-11 10:22:00,
2013-01-11 04:23:00,42.1,35.7,29.09,SSW,206,0.0,0.0,78,0.00,,,0.00,VWS V14.00,2013-01-11 10:23:00,
2013-01-11 04:25:00,42.3,36.2,29.09,SSW,206,0.0,0.0,79,0.00,,,0.00,VWS V14.00,2013-01-11 10:25:00,
2013-01-11 04:27:00,42.4,36.4,29.09,SSW,206,0.0,0.0,79,0.00,,,0.00,VWS V14.00,2013-01-11 10:27:00,
2013-01-11 04:28:00,42.4,36.7,29.09,SSW,206,0.0,0.0,80,0.00,,,0.00,VWS V14.00,2013-01-11 10:28:00,
2013-01-11 04:29:00,42.4,36.7,29.09,SSW,206,0.0,0.0,80,0.00,,,0.00,VWS V14.00,2013-01-11 10:29:00,
2013-01-11 04:30:00,42.4,36.7,29.09,SSW,206,0.0,0.0,80,0.00,,,0.00,VWS V14.00,2013-01-11 10:30:00,
2013-01-11 04:33:00,42.1,36.0,29.06,SSW,206,0.0,0.0,79,0.00,,,0.00,VWS V14.00,2013-01-11 10:33:00,
2013-01-11 04:34:00,42.1,36.0,29.06,SSW,206,0.0,0.0,79,0.00,,,0.00,VWS V14.00,2013-01-11 10:34:00,
2013-01-11 04:36:00,42.1,36.0,29.06,SSW,206,0.0,0.0,79,0.00,,,0.00,VWS V14.00,2013-01-11 10:36:00,
2013-01-11 04:39:00,42.3,35.9,29.06,SSW,206,0.0,0.0,78,0.00,,,0.00,VWS V14.00,2013-01-11 10:39:00,
2013-01-11 04:40:00,42.3,35.9,29.06,SSW,206,0.0,0.0,78,0.00,,,0.00,VWS V14.00,2013-01-11 10:40:00,
2013-01-11 04:42:00,43.2,36.5,29.06,SSW,206,0.0,0.0,77,0.00,,,0.00,VWS V14.00,2013-01-11 10:42:00,
2013-01-11 04:45:00,43.9,37.2,29.06,SSW,206,0.0,0.0,77,0.00,,,0.00,VWS V14.00,2013-01-11 10:45:00,
2013-01-11 04:46:00,43.9,37.2,29.06,SSW,206,0.0,0.0,77,0.00,,,0.00,VWS V14.00,2013-01-11 10:46:00,
2013-01-11 04:48:00,43.9,37.2,29.06,SSW,206,0.0,0.0,77,0.00,,,0.00,VWS V14.00,2013-01-11 10:48:00,
2013-01-11 04:50:00,43.7,37.0,29.06,SSW,206,0.0,0.0,77,0.00,,,0.00,VWS V14.00,2013-01-11 10:50:00,
2013-01-11 04:52:00,43.5,36.8,29.06,SSW,206,0.0,0.0,77,0.00,,,0.00,VWS V14.00,2013-01-11 10:52:00,
2013-01-11 04:53:00,44.2,37.5,29.06,SSW,206,0.0,0.0,77,0.00,,,0.00,VWS V14.00,2013-01-11 10:53:00,
2013-01-11 04:56:00,44.6,37.5,29.06,SSW,206,0.0,0.0,76,0.00,,,0.00,VWS V14.00,2013-01-11 10:56:00,
2013-01-11 04:57:00,44.8,37.7,29.06,SSW,206,0.0,0.0,76,0.00,,,0.00,VWS V14.00,2013-01-11 10:57:00,
2013-01-11 04:58:00,45.0,37.9,29.06,SSW,206,0.0,0.0,76,0.00,,,0.00,VWS V14.00,2013-01-11 10:58:00,
2013-01-11 05:01:00,44.6,37.5,29.06,SSW,206,0.0,0.0,76,0.00,,,0.00,VWS V14.00,2013-01-11 11:01:00,
2013-01-11 05:02:00,44.6,37.5,29.06,SSW,206,0.0,0.0,76,0.00,,,0.00,VWS V14.00,2013-01-11 11:02:00,
2013-01-11 05:04:00,44.4,37.3,29.06,SSW,206,0.0,0.0,76,0.00,,,0.00,VWS V14.00,2013-01-11 11:04:00,
2013-01-11 05:06:00,44.4,37.3,29.06,SSW,206,0.0,0.0,76,0.00,,,0.00,VWS V14.00,2013-01-11 11:06:00,
2013-01-11 05:07:00,44.6,37.5,29.06,SSW,206,0.0,0.0,76,0.00,,,0.00,VWS V14.00,2013-01-11 11:07:00,
2013-01-11 05:10:00,44.6,37.2,29.06,SSW,206,0.0,0.0,75,0.00,,,0.00,VWS V14.00,2013-01-11 11:10:00,
2013-01-11 05:12:00,44.6,37.2,29.06,SSW,206,0.0,0.0,75,0.00,,,0.00,VWS V14.00,2013-01-11 11:12:00,
2013-01-11 05:13:00,44.8,37.3,29.06,SSW,206,0.0,0.0,75,0.00,,,0.00,VWS V14.00,2013-01-11 11:13:00,
2013-01-11 05:15:00,44.6,36.8,29.06,SSW,206,0.0,0.0,74,0.00,,,0.00,VWS V14.00,2013-01-11 11:15:00,
2013-01-11 05:17:00,43.9,35.8,29.03,SSW,206,0.0,0.0,73,0.00,,,0.00,VWS V14.00,2013-01-11 11:17:00,
2013-01-11 05:18:00,43.7,35.6,29.03,SSW,206,0.0,0.0,73,0.00,,,0.00,VWS V14.00,2013-01-11 11:18:00,
2013-01-11 05:21:00,44.2,35.5,29.03,SSW,202,0.0,2.2,71,0.00,,,0.00,VWS V14.00,2013-01-11 11:21:00,
2013-01-11 05:23:00,43.9,35.1,29.03,SSW,202,2.2,2.7,71,0.00,,,0.00,VWS V14.00,2013-01-11 11:23:00,
2013-01-11 05:24:00,44.2,35.5,29.03,SSW,203,3.1,3.1,71,0.00,,,0.00,VWS V14.00,2013-01-11 11:24:00,
2013-01-11 05:28:00,45.9,36.6,29.03,South,189,2.7,4.0,70,0.00,,,0.00,VWS V14.00,2013-01-11 11:28:00,
2013-01-11 05:29:00,46.0,37.2,29.03,South,189,0.0,4.0,71,0.00,,,0.00,VWS V14.00,2013-01-11 11:29:00,
2013-01-11 05:33:00,46.9,37.7,29.03,South,181,2.7,4.0,70,0.00,,,0.00,VWS V14.00,2013-01-11 11:33:00,
2013-01-11 05:34:00,47.3,38.0,29.03,South,188,2.7,4.0,70,0.00,,,0.00,VWS V14.00,2013-01-11 11:34:00,
2013-01-11 05:38:00,48.2,38.9,29.03,South,187,3.1,6.7,70,0.00,,,0.00,VWS V14.00,2013-01-11 11:38:00,
2013-01-11 05:39:00,48.2,38.9,29.03,South,187,3.6,6.7,70,0.00,,,0.00,VWS V14.00,2013-01-11 11:39:00,
2013-01-11 05:40:00,48.7,39.0,29.03,South,170,4.5,6.7,69,0.00,,,0.00,VWS V14.00,2013-01-11 11:40:00,
2013-01-11 05:44:00,49.3,37.6,29.03,South,178,4.0,6.7,64,0.00,,,0.00,VWS V14.00,2013-01-11 11:44:00,
2013-01-11 05:46:00,49.6,28.1,29.03,South,176,5.4,6.7,43,0.00,,,0.00,VWS V14.00,2013-01-11 11:46:00,
2013-01-11 05:49:00,49.8,18.9,29.03,South,185,4.9,6.3,29,0.00,,,0.00,VWS V14.00,2013-01-11 11:49:00,
2013-01-11 05:50:00,49.8,18.9,29.03,South,185,3.6,6.3,29,0.00,,,0.00,VWS V14.00,2013-01-11 11:50:00,
2013-01-11 05:51:00,49.6,18.7,29.03,South,186,4.0,6.3,29,0.00,,,0.00,VWS V14.00,2013-01-11 11:51:00,
2013-01-11 05:52:00,49.6,17.0,29.03,South,186,4.0,6.3,27,0.00,,,0.00,VWS V14.00,2013-01-11 11:52:00,
2013-01-11 05:55:00,50.2,16.6,29.03,South,180,5.8,6.3,26,0.00,,,0.00,VWS V14.00,2013-01-11 11:55:00,
2013-01-11 05:56:00,50.2,16.6,29.03,South,179,6.3,6.3,26,0.00,,,0.00,VWS V14.00,2013-01-11 11:56:00,
2013-01-11 05:57:00,50.4,16.8,29.03,South,185,4.0,6.3,26,0.00,,,0.00,VWS V14.00,2013-01-11 11:57:00,
2013-01-11 06:00:00,51.1,16.5,29.03,South,176,8.1,8.1,25,0.00,,,0.00,VWS V14.00,2013-01-11 12:00:00,
2013-01-11 06:02:00,50.9,15.4,29.03,SSW,196,4.0,6.3,24,0.00,,,0.00,VWS V14.00,2013-01-11 12:02:00,
2013-01-11 06:03:00,51.1,15.6,29.03,SSW,193,7.6,7.6,24,0.00,,,0.00,VWS V14.00,2013-01-11 12:03:00,
2013-01-11 06:06:00,51.4,15.9,29.03,SSW,206,5.4,8.7,24,0.00,,,0.00,VWS V14.00,2013-01-11 12:06:00,
2013-01-11 06:07:00,51.4,14.9,29.03,SSW,204,5.8,8.7,23,0.00,,,0.00,VWS V14.00,2013-01-11 12:07:00,
2013-01-11 06:09:00,51.3,14.7,29.03,SSW,197,4.0,8.7,23,0.00,,,0.00,VWS V14.00,2013-01-11 12:09:00,
2013-01-11 06:12:00,50.9,14.4,29.03,South,178,3.6,8.7,23,0.00,,,0.00,VWS V14.00,2013-01-11 12:12:00,
2013-01-11 06:13:00,50.9,15.4,29.03,South,178,5.8,8.7,24,0.00,,,0.00,VWS V14.00,2013-01-11 12:13:00,
2013-01-11 06:14:00,50.9,15.4,29.03,South,180,5.8,8.7,24,0.00,,,0.00,VWS V14.00,2013-01-11 12:14:00,
2013-01-11 06:17:00,50.5,15.1,29.03,South,183,3.1,5.4,24,0.00,,,0.00,VWS V14.00,2013-01-11 12:17:00,
2013-01-11 06:18:00,50.5,15.1,29.03,South,185,3.6,5.4,24,0.00,,,0.00,VWS V14.00,2013-01-11 12:18:00,
2013-01-11 06:21:00,50.2,15.7,29.03,SSW,195,3.1,5.8,25,0.00,,,0.00,VWS V14.00,2013-01-11 12:21:00,
2013-01-11 06:22:00,50.2,16.6,29.03,SSW,200,3.6,5.8,26,0.00,,,0.00,VWS V14.00,2013-01-11 12:22:00,
2013-01-11 06:24:00,50.2,16.6,29.03,South,191,4.5,5.8,26,0.00,,,0.00,VWS V14.00,2013-01-11 12:24:00,
2013-01-11 06:26:00,50.0,16.5,29.03,SSW,196,4.0,5.8,26,0.00,,,0.00,VWS V14.00,2013-01-11 12:26:00,
2013-01-11 06:29:00,49.8,18.0,29.03,South,180,3.6,5.8,28,0.00,,,0.00,VWS V14.00,2013-01-11 12:29:00,
2013-01-11 06:30:00,49.8,18.0,29.03,South,187,5.8,5.8,28,0.00,,,0.00,VWS V14.00,2013-01-11 12:30:00,
2013-01-11 06:32:00,49.8,18.0,29.03,SSW,193,4.9,5.4,28,0.00,,,0.00,VWS V14.00,2013-01-11 12:32:00,
2013-01-11 06:35:00,49.8,18.9,29.03,South,185,4.0,5.4,29,0.00,,,0.00,VWS V14.00,2013-01-11 12:35:00,
2013-01-11 06:36:00,49.8,18.9,29.03,South,185,4.0,5.4,29,0.00,,,0.00,VWS V14.00,2013-01-11 12:36:00,
2013-01-11 06:37:00,49.8,19.6,29.03,South,178,2.7,5.8,30,0.00,,,0.00,VWS V14.00,2013-01-11 12:37:00,
2013-01-11 06:41:00,50.0,21.3,29.03,South,170,3.1,5.8,32,0.00,,,0.00,VWS V14.00,2013-01-11 12:41:00,
2013-01-11 06:42:00,49.8,21.2,29.03,South,170,2.2,5.8,32,0.00,,,0.00,VWS V14.00,2013-01-11 12:42:00,
2013-01-11 06:45:00,49.8,21.9,29.03,South,172,0.0,5.8,33,0.00,,,0.00,VWS V14.00,2013-01-11 12:45:00,
2013-01-11 06:46:00,49.6,21.7,29.03,South,172,0.0,2.2,33,0.00,,,0.00,VWS V14.00,2013-01-11 12:46:00,
2013-01-11 06:47:00,49.8,21.9,29.03,SSE,167,3.6,3.6,33,0.00,,,0.00,VWS V14.00,2013-01-11 12:47:00,
2013-01-11 06:50:00,49.8,22.6,29.03,SSE,166,0.0,3.6,34,0.00,,,0.00,VWS V14.00,2013-01-11 12:50:00,
2013-01-11 06:52:00,50.0,22.8,29.03,SSE,166,0.0,3.6,34,0.00,,,0.00,VWS V14.00,2013-01-11 12:52:00,
2013-01-11 06:53:00,50.0,22.8,29.03,SSE,166,0.0,3.6,34,0.00,,,0.00,VWS V14.00,2013-01-11 12:53:00,
2013-01-11 06:56:00,50.0,23.4,29.03,SSE,168,0.0,3.6,35,0.00,,,0.00,VWS V14.00,2013-01-11 12:56:00,
2013-01-11 06:57:00,50.0,23.4,29.03,SSE,168,0.0,3.6,35,0.00,,,0.00,VWS V14.00,2013-01-11 12:57:00,
2013-01-11 06:58:00,49.8,23.3,29.03,SSE,168,0.0,3.6,35,0.00,,,0.00,VWS V14.00,2013-01-11 12:58:00,
2013-01-11 06:59:00,49.8,23.3,29.03,SSE,168,0.0,3.6,35,0.00,,,0.00,VWS V14.00,2013-01-11 12:59:00,
2013-01-11 07:01:00,49.6,23.8,29.03,SSE,168,0.0,0.0,36,0.00,,,0.00,VWS V14.00,2013-01-11 13:01:00,
2013-01-11 07:03:00,49.6,23.8,29.03,SSE,168,0.0,0.0,36,0.00,,,0.00,VWS V14.00,2013-01-11 13:03:00,
2013-01-11 07:04:00,49.6,23.8,29.03,SSE,168,0.0,0.0,36,0.00,,,0.00,VWS V14.00,2013-01-11 13:04:00,
2013-01-11 07:07:00,49.5,23.6,29.03,SSE,168,0.0,0.0,36,0.00,,,0.00,VWS V14.00,2013-01-11 13:07:00,
2013-01-11 07:08:00,49.5,23.6,29.03,SSE,168,0.0,0.0,36,0.00,,,0.00,VWS V14.00,2013-01-11 13:08:00,
2013-01-11 07:10:00,49.3,23.5,29.03,SSE,168,0.0,0.0,36,0.00,,,0.00,VWS V14.00,2013-01-11 13:10:00,
2013-01-11 07:12:00,49.1,23.3,29.03,SSE,168,0.0,0.0,36,0.00,,,0.00,VWS V14.00,2013-01-11 13:12:00,
2013-01-11 07:13:00,49.1,23.3,29.03,SSE,168,0.0,0.0,36,0.00,,,0.00,VWS V14.00,2013-01-11 13:13:00,
2013-01-11 07:15:00,49.1,24.0,29.03,SSE,168,0.0,0.0,37,0.00,,,0.00,VWS V14.00,2013-01-11 13:15:00,
2013-01-11 07:16:00,49.1,24.0,29.03,SSE,168,0.0,0.0,37,0.00,,,0.00,VWS V14.00,2013-01-11 13:16:00,
2013-01-11 07:18:00,48.7,23.6,29.03,SSE,168,0.0,0.0,37,0.00,,,0.00,VWS V14.00,2013-01-11 13:18:00,
2013-01-11 07:20:00,48.6,22.8,29.03,SSE,168,0.0,0.0,36,0.00,,,0.00,VWS V14.00,2013-01-11 13:20:00,
2013-01-11 07:21:00,48.4,22.7,29.03,SSE,168,0.0,0.0,36,0.00,,,0.00,VWS V14.00,2013-01-11 13:21:00,
2013-01-11 07:23:00,48.2,22.5,29.03,SSE,168,0.0,0.0,36,0.00,,,0.00,VWS V14.00,2013-01-11 13:23:00,
2013-01-11 07:25:00,48.2,22.5,29.03,SSE,168,0.0,0.0,36,0.00,,,0.00,VWS V14.00,2013-01-11 13:25:00,
2013-01-11 07:26:00,48.2,22.5,29.03,SSE,168,0.0,0.0,36,0.00,,,0.00,VWS V14.00,2013-01-11 13:26:00,
2013-01-11 07:27:00,48.2,22.5,29.03,SSE,168,0.0,0.0,36,0.00,,,0.00,VWS V14.00,2013-01-11 13:27:00,
2013-01-11 07:29:00,48.2,23.2,29.03,SSE,168,0.0,0.0,37,0.00,,,0.00,VWS V14.00,2013-01-11 13:29:00,
2013-01-11 07:30:00,48.4,23.3,29.03,SSE,168,0.0,0.0,37,0.00,,,0.00,VWS V14.00,2013-01-11 13:30:00,
2013-01-11 07:32:00,48.2,23.2,29.03,SSE,168,0.0,0.0,37,0.00,,,0.00,VWS V14.00,2013-01-11 13:32:00,
2013-01-11 07:34:00,48.0,23.0,29.03,SSE,168,0.0,0.0,37,0.00,,,0.00,VWS V14.00,2013-01-11 13:34:00,
2013-01-11 07:36:00,48.0,23.6,29.03,SSE,168,0.0,0.0,38,0.00,,,0.00,VWS V14.00,2013-01-11 13:36:00,
2013-01-11 07:37:00,48.2,23.8,29.03,SSE,168,0.0,0.0,38,0.00,,,0.00,VWS V14.00,2013-01-11 13:37:00,
2013-01-11 07:39:00,48.0,24.3,29.03,SSE,168,0.0,0.0,39,0.00,,,0.00,VWS V14.00,2013-01-11 13:39:00,
2013-01-11 07:41:00,47.8,22.9,29.03,SSE,168,0.0,0.0,37,0.00,,,0.00,VWS V14.00,2013-01-11 13:41:00,
2013-01-11 07:42:00,47.7,22.7,29.03,SSE,168,0.0,0.0,37,0.00,,,0.00,VWS V14.00,2013-01-11 13:42:00,
2013-01-11 07:44:00,47.5,22.5,29.03,SSE,168,0.0,0.0,37,0.00,,,0.00,VWS V14.00,2013-01-11 13:44:00,
2013-01-11 07:45:00,47.3,22.4,29.03,SSE,168,0.0,0.0,37,0.00,,,0.00,VWS V14.00,2013-01-11 13:45:00,
2013-01-11 07:47:00,47.3,22.4,29.03,SSE,168,0.0,0.0,37,0.00,,,0.00,VWS V14.00,2013-01-11 13:47:00,
2013-01-11 07:49:00,47.3,23.0,29.03,SSE,168,0.0,0.0,38,0.00,,,0.00,VWS V14.00,2013-01-11 13:49:00,
2013-01-11 07:51:00,47.1,23.5,29.03,SSE,168,0.0,0.0,39,0.00,,,0.00,VWS V14.00,2013-01-11 13:51:00,
2013-01-11 07:52:00,47.1,24.1,29.03,SSE,168,0.0,0.0,40,0.00,,,0.00,VWS V14.00,2013-01-11 13:52:00,
2013-01-11 07:53:00,46.9,23.9,29.03,SSE,168,0.0,0.0,40,0.00,,,0.00,VWS V14.00,2013-01-11 13:53:00,
2013-01-11 07:55:00,46.8,23.7,29.03,South,172,0.0,0.0,40,0.00,,,0.00,VWS V14.00,2013-01-11 13:55:00,
2013-01-11 07:56:00,46.9,24.5,29.03,South,176,0.0,0.0,41,0.00,,,0.00,VWS V14.00,2013-01-11 13:56:00,
2013-01-11 07:58:00,46.9,26.2,29.03,South,176,0.0,0.0,44,0.00,,,0.00,VWS V14.00,2013-01-11 13:58:00,
2013-01-11 08:00:00,46.9,27.3,29.03,South,176,0.0,0.0,46,0.00,,,0.00,VWS V14.00,2013-01-11 14:00:00,
2013-01-11 08:02:00,47.1,28.5,29.03,South,176,0.0,0.0,48,0.00,,,0.00,VWS V14.00,2013-01-11 14:02:00,
2013-01-11 08:03:00,47.1,30.9,29.03,South,176,0.0,0.0,53,0.00,,,0.00,VWS V14.00,2013-01-11 14:03:00,
2013-01-11 08:04:00,47.3,31.5,29.03,South,176,0.0,0.0,54,0.00,,,0.00,VWS V14.00,2013-01-11 14:04:00,
2013-01-11 08:05:00,47.1,32.2,29.03,South,176,0.0,0.0,56,0.00,,,0.00,VWS V14.00,2013-01-11 14:05:00,
2013-01-11 08:07:00,46.9,31.2,29.03,South,176,0.0,0.0,54,0.00,,,0.00,VWS V14.00,2013-01-11 14:07:00,
2013-01-11 08:10:00,47.1,32.2,29.03,South,176,0.0,0.0,56,0.00,,,0.00,VWS V14.00,2013-01-11 14:10:00,
2013-01-11 08:12:00,46.9,31.6,29.03,South,176,0.0,0.0,55,0.00,,,0.00,VWS V14.00,2013-01-11 14:12:00,
2013-01-11 08:15:00,47.3,32.8,29.03,South,176,0.0,0.0,57,0.00,,,0.00,VWS V14.00,2013-01-11 14:15:00,
2013-01-11 08:17:00,47.5,32.6,29.03,South,176,0.0,0.0,56,0.00,,,0.00,VWS V14.00,2013-01-11 14:17:00,
2013-01-11 08:18:00,47.5,32.6,29.03,South,176,0.0,0.0,56,0.00,,,0.00,VWS V14.00,2013-01-11 14:18:00,
2013-01-11 08:21:00,47.5,31.7,29.03,South,176,0.0,0.0,54,0.00,,,0.00,VWS V14.00,2013-01-11 14:21:00,
2013-01-11 08:22:00,47.7,31.9,29.03,South,176,0.0,0.0,54,0.00,,,0.00,VWS V14.00,2013-01-11 14:22:00,
2013-01-11 08:23:00,47.7,31.9,29.03,South,176,0.0,0.0,54,0.00,,,0.00,VWS V14.00,2013-01-11 14:23:00,
2013-01-11 08:26:00,48.4,33.9,29.03,South,176,0.0,0.0,57,0.00,,,0.00,VWS V14.00,2013-01-11 14:26:00,
2013-01-11 08:27:00,48.6,34.5,29.03,South,176,0.0,0.0,58,0.00,,,0.00,VWS V14.00,2013-01-11 14:27:00,
2013-01-11 08:29:00,48.7,34.6,29.03,South,176,0.0,0.0,58,0.00,,,0.00,VWS V14.00,2013-01-11 14:29:00,
2013-01-11 08:31:00,48.9,35.2,29.03,South,176,0.0,0.0,59,0.00,,,0.00,VWS V14.00,2013-01-11 14:31:00,
2013-01-11 08:33:00,49.5,35.7,29.03,South,176,0.0,0.0,59,0.00,,,0.00,VWS V14.00,2013-01-11 14:33:00,
2013-01-11 08:35:00,49.5,36.6,29.03,South,176,0.0,0.0,61,0.00,,,0.00,VWS V14.00,2013-01-11 14:35:00,
2013-01-11 08:36:00,49.6,37.2,29.03,South,176,0.0,0.0,62,0.00,,,0.00,VWS V14.00,2013-01-11 14:36:00,
2013-01-11 08:38:00,50.0,38.3,29.03,South,179,0.0,0.0,64,0.00,,,0.00,VWS V14.00,2013-01-11 14:38:00,
2013-01-11 08:39:00,50.0,38.3,29.03,South,179,0.0,0.0,64,0.00,,,0.00,VWS V14.00,2013-01-11 14:39:00,
2013-01-11 08:40:00,50.0,38.3,29.03,South,179,0.0,0.0,64,0.00,,,0.00,VWS V14.00,2013-01-11 14:40:00,
2013-01-11 08:42:00,50.0,37.9,29.03,South,179,0.0,0.0,63,0.00,,,0.00,VWS V14.00,2013-01-11 14:42:00,
2013-01-11 08:44:00,50.0,37.5,29.03,South,179,0.0,0.0,62,0.00,,,0.00,VWS V14.00,2013-01-11 14:44:00,
2013-01-11 08:45:00,50.0,37.1,29.03,South,179,0.0,0.0,61,0.00,,,0.00,VWS V14.00,2013-01-11 14:45:00,
2013-01-11 08:46:00,50.0,37.1,29.03,South,179,0.0,0.0,61,0.00,,,0.00,VWS V14.00,2013-01-11 14:46:00,
2013-01-11 08:47:00,50.2,36.8,29.03,South,179,0.0,0.0,60,0.00,,,0.00,VWS V14.00,2013-01-11 14:47:00,
2013-01-11 08:50:00,50.4,37.4,29.03,South,181,0.0,0.0,61,0.00,,,0.00,VWS V14.00,2013-01-11 14:50:00,
2013-01-11 08:51:00,50.4,37.0,29.03,South,181,0.0,0.0,60,0.00,,,0.00,VWS V14.00,2013-01-11 14:51:00,
2013-01-11 08:52:00,50.5,37.2,29.03,South,181,0.0,0.0,60,0.00,,,0.00,VWS V14.00,2013-01-11 14:52:00,
2013-01-11 08:54:00,50.9,38.0,29.03,South,181,0.0,0.0,61,0.00,,,0.00,VWS V14.00,2013-01-11 14:54:00,
2013-01-11 08:56:00,51.4,38.0,29.03,South,181,0.0,0.0,60,0.00,,,0.00,VWS V14.00,2013-01-11 14:56:00,
2013-01-11 08:57:00,51.6,38.2,29.03,South,181,0.0,0.0,60,0.00,,,0.00,VWS V14.00,2013-01-11 14:57:00,
2013-01-11 08:59:00,52.0,37.7,29.03,South,181,0.0,0.0,58,0.00,,,0.00,VWS V14.00,2013-01-11 14:59:00,
2013-01-11 09:01:00,52.5,37.7,29.03,South,181,0.0,0.0,57,0.00,,,0.00,VWS V14.00,2013-01-11 15:01:00,
2013-01-11 09:03:00,52.7,37.9,29.03,South,181,0.0,0.0,57,0.00,,,0.00,VWS V14.00,2013-01-11 15:03:00,
2013-01-11 09:04:00,52.7,37.9,29.03,South,181,0.0,0.0,57,0.00,,,0.00,VWS V14.00,2013-01-11 15:04:00,
2013-01-11 09:06:00,52.9,37.6,29.03,South,181,0.0,0.0,56,0.00,,,0.00,VWS V14.00,2013-01-11 15:06:00,
2013-01-11 09:07:00,52.9,37.6,29.03,South,181,0.0,0.0,56,0.00,,,0.00,VWS V14.00,2013-01-11 15:07:00,
2013-01-11 09:08:00,53.1,38.2,29.03,South,181,0.0,0.0,57,0.00,,,0.00,VWS V14.00,2013-01-11 15:08:00,
2013-01-11 09:09:00,53.2,38.4,29.03,South,181,0.0,0.0,57,0.00,,,0.00,VWS V14.00,2013-01-11 15:09:00,
2013-01-11 09:12:00,54.3,39.9,29.03,South,181,0.0,0.0,58,0.00,,,0.00,VWS V14.00,2013-01-11 15:12:00,
2013-01-11 09:13:00,54.9,40.8,29.03,South,181,0.0,0.0,59,0.00,,,0.00,VWS V14.00,2013-01-11 15:13:00,
2013-01-11 09:16:00,54.9,40.8,29.03,South,181,0.0,0.0,59,0.00,,,0.00,VWS V14.00,2013-01-11 15:16:00,
2013-01-11 09:17:00,54.9,40.8,29.03,South,181,0.0,0.0,59,0.00,,,0.00,VWS V14.00,2013-01-11 15:17:00,
2013-01-11 09:18:00,54.9,40.8,29.03,South,181,0.0,0.0,59,0.00,,,0.00,VWS V14.00,2013-01-11 15:18:00,
2013-01-11 09:19:00,54.7,40.7,29.03,South,181,0.0,0.0,59,0.00,,,0.00,VWS V14.00,2013-01-11 15:19:00,
2013-01-11 09:22:00,54.5,39.1,29.03,South,181,0.0,0.0,56,0.00,,,0.00,VWS V14.00,2013-01-11 15:22:00,
2013-01-11 09:23:00,54.3,37.1,29.03,South,181,0.0,0.0,52,0.00,,,0.00,VWS V14.00,2013-01-11 15:23:00,
2013-01-11 09:24:00,54.5,34.7,29.03,South,181,0.0,0.0,47,0.00,,,0.00,VWS V14.00,2013-01-11 15:24:00,
2013-01-11 09:27:00,54.5,30.7,29.03,South,181,0.0,0.0,40,0.00,,,0.00,VWS V14.00,2013-01-11 15:27:00,
2013-01-11 09:28:00,54.5,30.1,29.03,South,181,0.0,0.0,39,0.00,,,0.00,VWS V14.00,2013-01-11 15:28:00,
2013-01-11 09:29:00,54.5,28.8,29.03,South,181,0.0,0.0,37,0.00,,,0.00,VWS V14.00,2013-01-11 15:29:00,
2013-01-11 09:30:00,54.5,28.1,29.03,South,181,0.0,0.0,36,0.00,,,0.00,VWS V14.00,2013-01-11 15:30:00,
2013-01-11 09:32:00,54.9,28.4,29.03,South,181,0.0,0.0,36,0.00,,,0.00,VWS V14.00,2013-01-11 15:32:00,
2013-01-11 09:34:00,54.9,28.4,29.03,South,181,0.0,0.0,36,0.00,,,0.00,VWS V14.00,2013-01-11 15:34:00,
2013-01-11 09:35:00,55.0,28.6,29.03,South,181,0.0,0.0,36,0.00,,,0.00,VWS V14.00,2013-01-11 15:35:00,
2013-01-11 09:37:00,55.2,28.8,29.03,South,181,0.0,0.0,36,0.00,,,0.00,VWS V14.00,2013-01-11 15:37:00,
2013-01-11 09:38:00,55.6,29.1,29.03,South,181,0.0,0.0,36,0.00,,,0.00,VWS V14.00,2013-01-11 15:38:00,
2013-01-11 09:40:00,55.8,29.9,29.03,South,181,0.0,0.0,37,0.00,,,0.00,VWS V14.00,2013-01-11 15:40:00,
2013-01-11 09:43:00,56.3,28.3,29.03,South,181,0.0,0.0,34,0.00,,,0.00,VWS V14.00,2013-01-11 15:43:00,
2013-01-11 09:44:00,56.3,26.8,29.03,South,181,0.0,0.0,32,0.00,,,0.00,VWS V14.00,2013-01-11 15:44:00,
2013-01-11 09:45:00,56.3,25.3,29.03,SSW,202,0.0,0.0,30,0.00,,,0.00,VWS V14.00,2013-01-11 15:45:00,
2013-01-11 09:48:00,58.5,27.2,29.03,SW,232,0.0,0.0,30,0.00,,,0.00,VWS V14.00,2013-01-11 15:48:00,
2013-01-11 09:49:00,59.5,25.5,29.03,SW,232,0.0,0.0,27,0.00,,,0.00,VWS V14.00,2013-01-11 15:49:00,
2013-01-11 09:50:00,60.8,26.6,29.03,WSW,242,0.0,0.0,27,0.00,,,0.00,VWS V14.00,2013-01-11 15:50:00,
2013-01-11 09:52:00,62.4,28.0,29.03,WNW,285,3.1,3.1,27,0.00,,,0.00,VWS V14.00,2013-01-11 15:52:00,
2013-01-11 09:53:00,64.0,26.5,29.03,WNW,292,2.7,3.1,24,0.00,,,0.00,VWS V14.00,2013-01-11 15:53:00,
2013-01-11 09:55:00,65.7,25.8,29.03,WNW,292,0.0,3.1,22,0.00,,,0.00,VWS V14.00,2013-01-11 15:55:00,
2013-01-11 09:56:00,65.1,23.1,29.03,WNW,292,0.0,3.1,20,0.00,,,0.00,VWS V14.00,2013-01-11 15:56:00,
2013-01-11 09:58:00,64.8,21.6,29.03,WNW,292,0.0,3.1,19,0.00,,,0.00,VWS V14.00,2013-01-11 15:58:00,
2013-01-11 09:59:00,65.3,23.2,29.03,WNW,292,0.0,3.1,20,0.00,,,0.00,VWS V14.00,2013-01-11 15:59:00,
2013-01-11 10:01:00,66.0,22.6,29.03,WNW,292,0.0,0.0,19,0.00,,,0.00,VWS V14.00,2013-01-11 16:01:00,
2013-01-11 10:02:00,66.7,23.2,29.03,WNW,292,0.0,0.0,19,0.00,,,0.00,VWS V14.00,2013-01-11 16:02:00,
2013-01-11 10:03:00,67.5,22.5,29.03,WNW,292,0.0,0.0,18,0.00,,,0.00,VWS V14.00,2013-01-11 16:03:00,
2013-01-11 10:04:00,68.0,23.0,29.03,WNW,290,0.0,0.0,18,0.00,,,0.00,VWS V14.00,2013-01-11 16:04:00,
2013-01-11 10:07:00,70.5,23.6,29.03,SSW,204,5.8,5.8,17,0.00,,,0.00,VWS V14.00,2013-01-11 16:07:00,
2013-01-11 10:08:00,66.9,22.1,29.03,SW,214,4.0,5.8,18,0.00,,,0.00,VWS V14.00,2013-01-11 16:08:00,
2013-01-11 10:09:00,66.7,21.9,29.03,SSW,199,4.5,5.8,18,0.00,,,0.00,VWS V14.00,2013-01-11 16:09:00,
2013-01-11 10:13:00,64.0,21.0,29.03,SSW,200,4.0,5.8,19,0.00,,,0.00,VWS V14.00,2013-01-11 16:13:00,
2013-01-11 10:16:00,62.4,19.6,29.03,SSW,193,5.4,6.3,19,0.00,,,0.00,VWS V14.00,2013-01-11 16:16:00,
2013-01-11 10:18:00,61.7,19.0,29.03,SSW,200,4.0,8.7,19,0.00,,,0.00,VWS V14.00,2013-01-11 16:18:00,
2013-01-11 10:21:00,61.5,18.9,29.03,South,179,5.8,8.7,19,0.00,,,0.00,VWS V14.00,2013-01-11 16:21:00,
2013-01-11 10:24:00,62.1,19.3,29.03,SSW,193,8.3,10.1,19,0.00,,,0.00,VWS V14.00,2013-01-11 16:24:00,
2013-01-11 10:26:00,62.2,19.5,29.03,South,188,5.4,10.1,19,0.00,,,0.00,VWS V14.00,2013-01-11 16:26:00,
2013-01-11 10:28:00,63.0,20.1,29.03,South,182,7.6,10.1,19,0.00,,,0.00,VWS V14.00,2013-01-11 16:28:00,
2013-01-11 10:31:00,63.9,20.8,29.03,South,182,6.3,10.5,19,0.00,,,0.00,VWS V14.00,2013-01-11 16:31:00,
2013-01-11 10:33:00,64.9,20.4,29.03,South,182,5.8,8.7,18,0.00,,,0.00,VWS V14.00,2013-01-11 16:33:00,
2013-01-11 10:35:00,67.5,22.5,29.03,SSW,194,5.8,8.7,18,0.00,,,0.00,VWS V14.00,2013-01-11 16:35:00,
2013-01-11 10:36:00,67.5,22.5,29.03,South,173,8.1,8.7,18,0.00,,,0.00,VWS V14.00,2013-01-11 16:36:00,
2013-01-11 10:38:00,71.8,24.7,29.03,South,172,5.8,8.7,17,0.00,,,0.00,VWS V14.00,2013-01-11 16:38:00,
2013-01-11 10:39:00,70.5,23.6,29.03,SSW,194,5.8,8.7,17,0.00,,,0.00,VWS V14.00,2013-01-11 16:39:00,
2013-01-11 10:41:00,70.2,23.4,29.03,South,184,6.3,8.7,17,0.00,,,0.00,VWS V14.00,2013-01-11 16:41:00,
2013-01-11 10:42:00,69.8,23.1,29.03,South,189,8.1,10.1,17,0.00,,,0.00,VWS V14.00,2013-01-11 16:42:00,
2013-01-11 10:43:00,70.7,23.8,29.03,SSW,206,5.8,10.1,17,0.00,,,0.00,VWS V14.00,2013-01-11 16:43:00,
2013-01-11 10:45:00,68.7,23.5,29.03,SSE,162,10.1,11.9,18,0.00,,,0.00,VWS V14.00,2013-01-11 16:45:00,
2013-01-11 10:46:00,68.9,23.7,29.03,South,178,9.6,9.6,18,0.00,,,0.00,VWS V14.00,2013-01-11 16:46:00,
2013-01-11 10:48:00,68.4,23.2,29.03,SSW,200,6.3,10.5,18,0.00,,,0.00,VWS V14.00,2013-01-11 16:48:00,
2013-01-11 10:49:00,67.8,22.8,29.03,SSW,196,6.3,10.5,18,0.00,,,0.00,VWS V14.00,2013-01-11 16:49:00,
2013-01-11 10:51:00,68.4,23.2,29.03,SW,218,8.1,10.5,18,0.00,,,0.00,VWS V14.00,2013-01-11 16:51:00,
2013-01-11 10:53:00,70.5,23.6,29.03,SW,217,6.3,10.5,17,0.00,,,0.00,VWS V14.00,2013-01-11 16:53:00,
2013-01-11 10:54:00,71.1,24.1,29.03,SSW,197,10.1,10.5,17,0.00,,,0.00,VWS V14.00,2013-01-11 16:54:00,
2013-01-11 10:55:00,71.1,24.1,29.03,SSW,203,8.7,12.3,17,0.00,,,0.00,VWS V14.00,2013-01-11 16:55:00,
2013-01-11 10:57:00,70.0,23.2,29.03,South,179,5.4,13.2,17,0.00,,,0.00,VWS V14.00,2013-01-11 16:57:00,
2013-01-11 10:58:00,70.5,23.6,29.03,SSW,207,7.6,13.2,17,0.00,,,0.00,VWS V14.00,2013-01-11 16:58:00,
2013-01-11 11:00:00,70.7,23.8,29.03,South,191,6.3,13.2,17,0.00,,,0.00,VWS V14.00,2013-01-11 17:00:00,
2013-01-11 11:02:00,69.8,23.1,29.03,South,178,8.3,12.3,17,0.00,,,0.00,VWS V14.00,2013-01-11 17:02:00,
2013-01-11 11:04:00,68.5,23.4,29.03,South,184,8.1,12.8,18,0.00,,,0.00,VWS V14.00,2013-01-11 17:04:00,
2013-01-11 11:05:00,69.3,24.0,29.03,SW,225,8.1,12.8,18,0.00,,,0.00,VWS V14.00,2013-01-11 17:05:00,
2013-01-11 11:07:00,70.5,23.6,29.03,South,184,8.3,13.2,17,0.00,,,0.00,VWS V14.00,2013-01-11 17:07:00,
2013-01-11 11:10:00,71.4,24.4,29.03,SSW,195,10.5,14.5,17,0.00,,,0.00,VWS V14.00,2013-01-11 17:10:00,
2013-01-11 11:11:00,71.6,24.5,29.03,SSE,163,15.4,15.4,17,0.00,,,0.00,VWS V14.00,2013-01-11 17:11:00,
2013-01-11 11:16:00,68.9,23.7,29.03,SSE,168,11.0,13.2,18,0.00,,,0.00,VWS V14.00,2013-01-11 17:16:00,
2013-01-11 11:17:00,69.1,23.8,29.03,South,185,8.3,16.3,18,0.00,,,0.00,VWS V14.00,2013-01-11 17:17:00,
2013-01-11 11:18:00,69.1,23.8,29.03,South,190,8.1,16.3,18,0.00,,,0.00,VWS V14.00,2013-01-11 17:18:00,
2013-01-11 11:21:00,68.0,23.0,29.03,SSW,212,8.3,16.3,18,0.00,,,0.00,VWS V14.00,2013-01-11 17:21:00,
2013-01-11 11:23:00,68.4,23.2,29.03,SSW,197,11.0,16.3,18,0.00,,,0.00,VWS V14.00,2013-01-11 17:23:00,
2013-01-11 11:25:00,67.8,22.8,29.03,South,182,14.1,17.4,18,0.00,,,0.00,VWS V14.00,2013-01-11 17:25:00,
2013-01-11 11:27:00,67.8,22.8,29.03,SW,214,12.8,17.4,18,0.00,,,0.00,VWS V14.00,2013-01-11 17:27:00,
2013-01-11 11:29:00,67.6,22.6,29.03,South,190,11.9,17.9,18,0.00,,,0.00,VWS V14.00,2013-01-11 17:29:00,
2013-01-11 11:32:00,68.0,23.0,29.03,SSE,163,8.1,10.1,18,0.00,,,0.00,VWS V14.00,2013-01-11 17:32:00,
2013-01-11 11:35:00,70.9,23.9,29.03,South,184,16.3,16.3,17,0.00,,,0.00,VWS V14.00,2013-01-11 17:35:00,
2013-01-11 11:37:00,69.3,24.0,29.03,SW,221,12.8,16.3,18,0.00,,,0.00,VWS V14.00,2013-01-11 17:37:00,
2013-01-11 11:38:00,70.3,23.5,29.03,SSW,195,7.2,16.3,17,0.00,,,0.00,VWS V14.00,2013-01-11 17:38:00,
2013-01-11 11:40:00,70.3,23.5,29.03,South,178,11.0,16.3,17,0.00,,,0.00,VWS V14.00,2013-01-11 17:40:00,
2013-01-11 11:41:00,69.6,24.3,29.03,SW,217,8.1,16.3,18,0.00,,,0.00,VWS V14.00,2013-01-11 17:41:00,
2013-01-11 11:43:00,70.7,23.8,29.03,SSW,196,10.1,16.3,17,0.00,,,0.00,VWS V14.00,2013-01-11 17:43:00,
2013-01-11 11:45:00,71.2,24.2,29.03,South,191,13.2,16.3,17,0.00,,,0.00,VWS V14.00,2013-01-11 17:45:00,
2013-01-11 11:46:00,71.8,24.7,29.03,South,179,12.8,12.8,17,0.00,,,0.00,VWS V14.00,2013-01-11 17:46:00,
2013-01-11 11:49:00,71.4,24.4,29.03,South,180,11.9,15.0,17,0.00,,,0.00,VWS V14.00,2013-01-11 17:49:00,
2013-01-11 11:51:00,72.5,25.2,29.03,South,184,11.0,15.0,17,0.00,,,0.00,VWS V14.00,2013-01-11 17:51:00,
2013-01-11 11:52:00,72.7,25.4,29.03,SSW,201,10.5,15.0,17,0.00,,,0.00,VWS V14.00,2013-01-11 17:52:00,
2013-01-11 11:54:00,72.1,25.0,29.03,SSE,151,5.4,15.0,17,0.00,,,0.00,VWS V14.00,2013-01-11 17:54:00,
2013-01-11 11:56:00,71.2,24.2,29.03,SSW,192,8.7,15.0,17,0.00,,,0.00,VWS V14.00,2013-01-11 17:56:00,
2013-01-11 11:57:00,71.2,24.2,29.03,SSW,199,6.3,15.0,17,0.00,,,0.00,VWS V14.00,2013-01-11 17:57:00,
2013-01-11 11:59:00,72.1,25.0,29.03,SW,236,11.9,15.0,17,0.00,,,0.00,VWS V14.00,2013-01-11 17:59:00,
2013-01-11 12:02:00,71.4,24.4,29.03,SSW,201,10.1,11.0,17,0.00,,,0.00,VWS V14.00,2013-01-11 18:02:00,
2013-01-11 12:03:00,71.8,24.7,29.03,SSW,198,8.1,11.0,17,0.00,,,0.00,VWS V14.00,2013-01-11 18:03:00,
2013-01-11 12:05:00,71.1,24.1,29.03,South,173,14.5,14.5,17,0.00,,,0.00,VWS V14.00,2013-01-11 18:05:00,
2013-01-11 12:08:00,71.2,24.2,29.03,SSE,168,15.0,15.0,17,0.00,,,0.00,VWS V14.00,2013-01-11 18:08:00,
2013-01-11 12:11:00,72.1,25.0,29.03,SSE,164,11.0,15.0,17,0.00,,,0.00,VWS V14.00,2013-01-11 18:11:00,
2013-01-11 12:13:00,72.0,24.8,29.03,South,185,5.8,15.0,17,0.00,,,0.00,VWS V14.00,2013-01-11 18:13:00,
2013-01-11 12:14:00,71.8,24.7,29.03,SSW,197,10.5,15.0,17,0.00,,,0.00,VWS V14.00,2013-01-11 18:14:00,
2013-01-11 12:17:00,71.1,24.1,29.00,SSW,210,8.7,13.2,17,0.00,,,0.00,VWS V14.00,2013-01-11 18:17:00,
2013-01-11 12:18:00,70.7,23.8,29.00,WSW,254,12.3,13.2,17,0.00,,,0.00,VWS V14.00,2013-01-11 18:18:00,
2013-01-11 12:19:00,70.9,23.9,29.00,SSE,164,12.8,13.2,17,0.00,,,0.00,VWS V14.00,2013-01-11 18:19:00,
2013-01-11 12:20:00,70.9,23.9,29.00,South,176,16.3,16.3,17,0.00,,,0.00,VWS V14.00,2013-01-11 18:20:00,
2013-01-11 12:23:00,72.7,25.4,29.00,South,173,7.6,16.3,17,0.00,,,0.00,VWS V14.00,2013-01-11 18:23:00,
2013-01-11 12:24:00,72.7,25.4,29.00,South,184,5.4,16.3,17,0.00,,,0.00,VWS V14.00,2013-01-11 18:24:00,
2013-01-11 12:25:00,72.1,25.0,29.00,South,191,10.1,16.3,17,0.00,,,0.00,VWS V14.00,2013-01-11 18:25:00,
2013-01-11 12:27:00,71.6,24.5,29.00,SW,219,8.7,16.3,17,0.00,,,0.00,VWS V14.00,2013-01-11 18:27:00,
2013-01-11 12:28:00,71.8,24.7,29.00,South,187,7.6,16.3,17,0.00,,,0.00,VWS V14.00,2013-01-11 18:28:00,
2013-01-11 12:29:00,71.8,24.7,29.00,South,176,6.3,16.3,17,0.00,,,0.00,VWS V14.00,2013-01-11 18:29:00,
2013-01-11 12:30:00,71.8,24.7,29.00,South,174,10.5,16.3,17,0.00,,,0.00,VWS V14.00,2013-01-11 18:30:00,
2013-01-11 12:33:00,72.0,24.8,29.00,SSW,211,8.7,16.8,17,0.00,,,0.00,VWS V14.00,2013-01-11 18:33:00,
2013-01-11 12:35:00,72.7,25.4,29.00,SW,216,7.6,16.8,17,0.00,,,0.00,VWS V14.00,2013-01-11 18:35:00,
2013-01-11 12:36:00,73.2,25.8,29.00,SSW,210,6.3,16.8,17,0.00,,,0.00,VWS V14.00,2013-01-11 18:36:00,
2013-01-11 12:39:00,72.9,25.5,29.00,South,179,8.7,16.8,17,0.00,,,0.00,VWS V14.00,2013-01-11 18:39:00,
2013-01-11 12:40:00,73.6,24.7,29.00,SSW,197,5.8,16.8,16,0.00,,,0.00,VWS V14.00,2013-01-11 18:40:00,
2013-01-11 12:41:00,73.8,24.8,29.00,SSW,206,4.0,16.8,16,0.00,,,0.00,VWS V14.00,2013-01-11 18:41:00,
2013-01-11 12:44:00,73.4,24.5,29.00,SSW,213,8.1,16.8,16,0.00,,,0.00,VWS V14.00,2013-01-11 18:44:00,
2013-01-11 12:45:00,73.2,25.8,29.00,SSW,203,8.3,16.8,17,0.00,,,0.00,VWS V14.00,2013-01-11 18:45:00,
2013-01-11 12:46:00,73.2,25.8,29.00,South,190,8.1,8.3,17,0.00,,,0.00,VWS V14.00,2013-01-11 18:46:00,
2013-01-11 12:47:00,74.1,25.1,29.00,South,175,12.8,12.8,16,0.00,,,0.00,VWS V14.00,2013-01-11 18:47:00,
2013-01-11 12:49:00,74.3,25.2,29.00,SSW,195,13.2,13.2,16,0.00,,,0.00,VWS V14.00,2013-01-11 18:49:00,
2013-01-11 12:51:00,75.7,26.4,29.00,SSE,147,3.6,14.1,16,0.00,,,0.00,VWS V14.00,2013-01-11 18:51:00,
2013-01-11 12:54:00,74.8,25.7,29.00,South,182,12.8,18.3,16,0.00,,,0.00,VWS V14.00,2013-01-11 18:54:00,
2013-01-11 12:55:00,75.0,25.8,29.00,South,176,8.7,18.3,16,0.00,,,0.00,VWS V14.00,2013-01-11 18:55:00,
2013-01-11 12:56:00,75.2,26.0,29.00,South,174,12.8,18.3,16,0.00,,,0.00,VWS V14.00,2013-01-11 18:56:00,
2013-01-11 12:57:00,75.4,26.1,29.00,SSE,166,13.2,18.3,16,0.00,,,0.00,VWS V14.00,2013-01-11 18:57:00,
2013-01-11 13:00:00,74.8,25.7,29.00,South,188,14.5,18.3,16,0.00,,,0.00,VWS V14.00,2013-01-11 19:00:00,
2013-01-11 13:01:00,76.3,26.8,29.00,SSE,168,15.0,18.3,16,0.00,,,0.00,VWS V14.00,2013-01-11 19:01:00,
2013-01-11 13:02:00,77.2,27.6,28.97,SW,220,11.0,15.0,16,0.00,,,0.00,VWS V14.00,2013-01-11 19:02:00,
2013-01-11 13:06:00,75.9,26.5,28.97,South,189,13.2,15.0,16,0.00,,,0.00,VWS V14.00,2013-01-11 19:06:00,
2013-01-11 13:08:00,75.9,26.5,28.97,South,187,8.7,15.0,16,0.00,,,0.00,VWS V14.00,2013-01-11 19:08:00,
2013-01-11 13:11:00,77.2,27.6,28.97,South,191,6.3,15.0,16,0.00,,,0.00,VWS V14.00,2013-01-11 19:11:00,
2013-01-11 13:12:00,79.0,27.4,28.97,SSW,203,4.9,15.0,15,0.00,,,0.00,VWS V14.00,2013-01-11 19:12:00,
2013-01-11 13:14:00,77.7,28.0,28.97,South,173,13.2,15.9,16,0.00,,,0.00,VWS V14.00,2013-01-11 19:14:00,
2013-01-11 13:16:00,77.9,28.1,29.00,SSW,203,8.7,8.7,16,0.00,,,0.00,VWS V14.00,2013-01-11 19:16:00,
2013-01-11 13:17:00,78.8,27.3,29.00,SSE,166,8.3,8.7,15,0.00,,,0.00,VWS V14.00,2013-01-11 19:17:00,
2013-01-11 13:18:00,78.3,28.4,29.00,SSW,193,12.8,13.2,16,0.00,,,0.00,VWS V14.00,2013-01-11 19:18:00,
2013-01-11 13:19:00,78.1,28.3,29.00,SSW,213,11.4,13.2,16,0.00,,,0.00,VWS V14.00,2013-01-11 19:19:00,
2013-01-11 13:23:00,75.0,25.8,29.00,South,169,9.6,13.2,16,0.00,,,0.00,VWS V14.00,2013-01-11 19:23:00,
2013-01-11 13:24:00,73.8,24.8,29.00,South,189,16.3,16.3,16,0.00,,,0.00,VWS V14.00,2013-01-11 19:24:00,
2013-01-11 13:25:00,73.8,24.8,29.00,South,182,10.1,16.3,16,0.00,,,0.00,VWS V14.00,2013-01-11 19:25:00,
2013-01-11 13:29:00,75.2,26.0,29.00,South,169,13.2,17.4,16,0.00,,,0.00,VWS V14.00,2013-01-11 19:29:00,
2013-01-11 13:30:00,75.2,26.0,29.00,South,174,11.0,17.4,16,0.00,,,0.00,VWS V14.00,2013-01-11 19:30:00,
2013-01-11 13:31:00,75.2,26.0,28.97,SSE,163,15.0,15.0,16,0.00,,,0.00,VWS V14.00,2013-01-11 19:31:00,
2013-01-11 13:35:00,74.8,25.7,28.97,SSW,202,7.6,15.4,16,0.00,,,0.00,VWS V14.00,2013-01-11 19:35:00,
2013-01-11 13:36:00,75.4,26.1,28.97,SSE,165,13.2,15.4,16,0.00,,,0.00,VWS V14.00,2013-01-11 19:36:00,
2013-01-11 13:40:00,74.7,25.5,28.97,SSW,213,8.3,15.4,16,0.00,,,0.00,VWS V14.00,2013-01-11 19:40:00,
2013-01-11 13:41:00,74.1,25.1,28.97,South,183,10.5,15.4,16,0.00,,,0.00,VWS V14.00,2013-01-11 19:41:00,
2013-01-11 13:42:00,74.3,25.2,28.97,South,189,12.8,15.4,16,0.00,,,0.00,VWS V14.00,2013-01-11 19:42:00,
2013-01-11 13:46:00,73.9,25.0,28.97,South,181,8.1,15.4,16,0.00,,,0.00,VWS V14.00,2013-01-11 19:46:00,
2013-01-11 13:47:00,73.8,24.8,28.97,South,183,13.2,15.4,16,0.00,,,0.00,VWS V14.00,2013-01-11 19:47:00,
2013-01-11 13:51:00,73.4,24.5,28.97,SSW,202,12.3,17.4,16,0.00,,,0.00,VWS V14.00,2013-01-11 19:51:00,
2013-01-11 13:52:00,73.6,24.7,28.97,SSW,205,10.1,17.4,16,0.00,,,0.00,VWS V14.00,2013-01-11 19:52:00,
2013-01-11 13:53:00,73.4,24.5,28.97,South,179,14.1,17.4,16,0.00,,,0.00,VWS V14.00,2013-01-11 19:53:00,
2013-01-11 13:57:00,74.1,25.1,28.97,South,178,10.1,17.4,16,0.00,,,0.00,VWS V14.00,2013-01-11 19:57:00,
2013-01-11 13:58:00,74.8,25.7,28.97,South,172,7.6,17.4,16,0.00,,,0.00,VWS V14.00,2013-01-11 19:58:00,
2013-01-11 14:02:00,74.5,25.4,28.97,South,184,12.8,12.8,16,0.00,,,0.00,VWS V14.00,2013-01-11 20:02:00,
2013-01-11 14:03:00,74.5,25.4,28.97,SSW,197,11.0,12.8,16,0.00,,,0.00,VWS V14.00,2013-01-11 20:03:00,
2013-01-11 14:07:00,75.2,26.0,28.97,South,185,8.3,12.8,16,0.00,,,0.00,VWS V14.00,2013-01-11 20:07:00,
2013-01-11 14:08:00,75.2,26.0,28.97,South,169,8.3,12.8,16,0.00,,,0.00,VWS V14.00,2013-01-11 20:08:00,
2013-01-11 14:10:00,74.8,25.7,28.97,South,175,13.2,15.9,16,0.00,,,0.00,VWS V14.00,2013-01-11 20:10:00,
2013-01-11 14:13:00,74.5,25.4,28.97,South,191,11.9,15.9,16,0.00,,,0.00,VWS V14.00,2013-01-11 20:13:00,
2013-01-11 14:14:00,73.8,24.8,28.97,SSW,205,12.3,15.9,16,0.00,,,0.00,VWS V14.00,2013-01-11 20:14:00,
2013-01-11 14:15:00,73.6,24.7,28.97,South,184,15.4,15.9,16,0.00,,,0.00,VWS V14.00,2013-01-11 20:15:00,
2013-01-11 14:19:00,74.5,25.4,28.97,South,184,11.0,12.3,16,0.00,,,0.00,VWS V14.00,2013-01-11 20:19:00,
2013-01-11 14:20:00,74.8,25.7,28.97,SSW,192,10.1,12.8,16,0.00,,,0.00,VWS V14.00,2013-01-11 20:20:00,
2013-01-11 14:24:00,76.6,27.1,28.97,South,179,8.7,15.4,16,0.00,,,0.00,VWS V14.00,2013-01-11 20:24:00,
2013-01-11 14:25:00,76.6,27.1,28.97,SSE,165,6.3,15.4,16,0.00,,,0.00,VWS V14.00,2013-01-11 20:25:00,
2013-01-11 14:26:00,77.7,28.0,28.97,SSE,164,12.8,15.4,16,0.00,,,0.00,VWS V14.00,2013-01-11 20:26:00,
2013-01-11 14:30:00,76.5,27.0,28.97,South,190,10.1,15.4,16,0.00,,,0.00,VWS V14.00,2013-01-11 20:30:00,
2013-01-11 14:31:00,77.0,27.4,28.94,South,174,8.3,8.3,16,0.00,,,0.00,VWS V14.00,2013-01-11 20:31:00,
2013-01-11 14:35:00,75.6,26.3,28.94,SSW,203,11.0,13.2,16,0.00,,,0.00,VWS V14.00,2013-01-11 20:35:00,
2013-01-11 14:36:00,76.6,27.1,28.94,SSE,166,8.1,13.2,16,0.00,,,0.00,VWS V14.00,2013-01-11 20:36:00,
2013-01-11 14:37:00,77.4,27.7,28.94,SSW,213,6.3,13.2,16,0.00,,,0.00,VWS V14.00,2013-01-11 20:37:00,
2013-01-11 14:41:00,77.7,28.0,28.94,South,187,8.3,13.2,16,0.00,,,0.00,VWS V14.00,2013-01-11 20:41:00,
2013-01-11 14:42:00,76.5,27.0,28.94,SSE,152,11.0,13.2,16,0.00,,,0.00,VWS V14.00,2013-01-11 20:42:00,
2013-01-11 14:43:00,76.6,27.1,28.94,South,188,10.5,13.2,16,0.00,,,0.00,VWS V14.00,2013-01-11 20:43:00,
2013-01-11 14:46:00,76.8,27.3,28.94,South,187,9.2,10.5,16,0.00,,,0.00,VWS V14.00,2013-01-11 20:46:00,
2013-01-11 14:47:00,77.4,27.7,28.94,SSE,159,5.8,10.5,16,0.00,,,0.00,VWS V14.00,2013-01-11 20:47:00,
2013-01-11 14:49:00,78.6,28.7,28.94,SSW,201,5.8,10.5,16,0.00,,,0.00,VWS V14.00,2013-01-11 20:49:00,
2013-01-11 14:51:00,79.3,27.7,28.94,SSW,211,10.1,12.3,15,0.00,,,0.00,VWS V14.00,2013-01-11 20:51:00,
2013-01-11 14:54:00,80.4,28.6,28.94,SSW,202,6.3,12.3,15,0.00,,,0.00,VWS V14.00,2013-01-11 20:54:00,
2013-01-11 14:56:00,80.6,28.7,28.94,SSW,192,13.2,13.2,15,0.00,,,0.00,VWS V14.00,2013-01-11 20:56:00,
2013-01-11 14:57:00,79.9,28.1,28.94,South,184,10.1,13.2,15,0.00,,,0.00,VWS V14.00,2013-01-11 20:57:00,
2013-01-11 15:01:00,79.5,27.9,28.94,SSW,197,8.1,10.5,15,0.00,,,0.00,VWS V14.00,2013-01-11 21:01:00,
2013-01-11 15:02:00,79.5,27.9,28.94,SSW,206,8.1,10.5,15,0.00,,,0.00,VWS V14.00,2013-01-11 21:02:00,
2013-01-11 15:07:00,75.9,26.5,28.94,SSE,165,8.3,11.9,16,0.00,,,0.00,VWS V14.00,2013-01-11 21:07:00,
2013-01-11 15:08:00,76.3,26.8,28.94,SSE,168,5.4,11.9,16,0.00,,,0.00,VWS V14.00,2013-01-11 21:08:00,
2013-01-11 15:13:00,75.2,26.0,28.94,South,179,8.3,15.0,16,0.00,,,0.00,VWS V14.00,2013-01-11 21:13:00,
2013-01-11 15:14:00,75.4,26.1,28.94,South,188,7.6,15.0,16,0.00,,,0.00,VWS V14.00,2013-01-11 21:14:00,
2013-01-11 15:17:00,75.2,26.0,28.94,SSE,168,7.6,9.2,16,0.00,,,0.00,VWS V14.00,2013-01-11 21:17:00,
2013-01-11 15:19:00,75.4,26.1,28.94,SSW,196,6.3,9.2,16,0.00,,,0.00,VWS V14.00,2013-01-11 21:19:00,
2013-01-11 15:21:00,75.4,26.1,28.94,SSE,159,7.6,11.0,16,0.00,,,0.00,VWS V14.00,2013-01-11 21:21:00,
2013-01-11 15:23:00,75.4,26.1,28.94,South,180,6.3,11.0,16,0.00,,,0.00,VWS V14.00,2013-01-11 21:23:00,
2013-01-11 15:25:00,76.6,27.1,28.94,South,177,8.3,11.0,16,0.00,,,0.00,VWS V14.00,2013-01-11 21:25:00,
2013-01-11 15:26:00,76.5,27.0,28.94,South,180,10.1,11.4,16,0.00,,,0.00,VWS V14.00,2013-01-11 21:26:00,
2013-01-11 15:27:00,76.3,26.8,28.94,South,172,8.3,11.4,16,0.00,,,0.00,VWS V14.00,2013-01-11 21:27:00,
2013-01-11 15:28:00,76.6,27.1,28.94,SSE,151,11.0,11.4,16,0.00,,,0.00,VWS V14.00,2013-01-11 21:28:00,
2013-01-11 15:30:00,76.5,27.0,28.94,SSE,168,4.9,12.8,16,0.00,,,0.00,VWS V14.00,2013-01-11 21:30:00,
2013-01-11 15:31:00,76.6,27.1,28.94,SSE,165,10.5,10.5,16,0.00,,,0.00,VWS V14.00,2013-01-11 21:31:00,
2013-01-11 15:33:00,76.5,27.0,28.94,SSE,168,8.3,10.5,16,0.00,,,0.00,VWS V14.00,2013-01-11 21:33:00,
2013-01-11 15:36:00,78.1,28.3,28.94,South,173,11.0,13.2,16,0.00,,,0.00,VWS V14.00,2013-01-11 21:36:00,
2013-01-11 15:37:00,78.1,28.3,28.94,SSW,205,13.6,13.6,16,0.00,,,0.00,VWS V14.00,2013-01-11 21:37:00,
2013-01-11 15:38:00,78.3,28.4,28.94,SSE,152,12.8,13.6,16,0.00,,,0.00,VWS V14.00,2013-01-11 21:38:00,
2013-01-11 15:39:00,78.3,28.4,28.94,South,169,8.7,13.6,16,0.00,,,0.00,VWS V14.00,2013-01-11 21:39:00,
2013-01-11 15:41:00,79.7,28.0,28.94,SSE,150,8.3,13.6,15,0.00,,,0.00,VWS V14.00,2013-01-11 21:41:00,
2013-01-11 15:43:00,80.2,28.4,28.94,SSE,168,12.8,13.6,15,0.00,,,0.00,VWS V14.00,2013-01-11 21:43:00,
2013-01-11 15:44:00,80.2,28.4,28.94,SSE,161,14.1,14.1,15,0.00,,,0.00,VWS V14.00,2013-01-11 21:44:00,
2013-01-11 15:48:00,78.4,28.6,28.94,SSE,163,8.7,12.8,16,0.00,,,0.00,VWS V14.00,2013-01-11 21:48:00,
2013-01-11 15:49:00,78.1,28.3,28.94,South,170,10.1,14.5,16,0.00,,,0.00,VWS V14.00,2013-01-11 21:49:00,
2013-01-11 15:51:00,78.8,27.3,28.94,South,186,5.8,20.6,15,0.00,,,0.00,VWS V14.00,2013-01-11 21:51:00,
2013-01-11 15:54:00,79.0,27.4,28.94,SSW,201,8.3,20.6,15,0.00,,,0.00,VWS V14.00,2013-01-11 21:54:00,
2013-01-11 15:55:00,79.0,27.4,28.94,SSW,196,6.7,20.6,15,0.00,,,0.00,VWS V14.00,2013-01-11 21:55:00,
2013-01-11 16:00:00,78.6,28.7,28.94,SE,142,6.3,20.6,16,0.00,,,0.00,VWS V14.00,2013-01-11 22:00:00,
2013-01-11 16:05:00,77.9,28.1,28.94,SSE,151,5.4,8.7,16,0.00,,,0.00,VWS V14.00,2013-01-11 22:05:00,
2013-01-11 16:06:00,78.3,28.4,28.94,South,188,5.8,8.7,16,0.00,,,0.00,VWS V14.00,2013-01-11 22:06:00,
2013-01-11 16:11:00,77.9,28.1,28.94,South,174,10.1,12.3,16,0.00,,,0.00,VWS V14.00,2013-01-11 22:11:00,
2013-01-11 16:12:00,78.4,28.6,28.94,South,178,8.3,12.3,16,0.00,,,0.00,VWS V14.00,2013-01-11 22:12:00,
2013-01-11 16:16:00,77.2,27.6,28.94,SSE,168,5.8,5.8,16,0.00,,,0.00,VWS V14.00,2013-01-11 22:16:00,
2013-01-11 16:17:00,76.8,27.3,28.94,South,185,7.6,12.8,16,0.00,,,0.00,VWS V14.00,2013-01-11 22:17:00,
2013-01-11 16:21:00,74.8,25.7,28.94,South,175,8.1,12.8,16,0.00,,,0.00,VWS V14.00,2013-01-11 22:21:00,
2013-01-11 16:23:00,74.7,25.5,28.94,SSE,159,9.6,12.8,16,0.00,,,0.00,VWS V14.00,2013-01-11 22:23:00,
2013-01-11 16:27:00,73.9,25.0,28.94,SSE,168,8.3,16.8,16,0.00,,,0.00,VWS V14.00,2013-01-11 22:27:00,
2013-01-11 16:28:00,73.8,24.8,28.94,South,184,6.3,16.8,16,0.00,,,0.00,VWS V14.00,2013-01-11 22:28:00,
2013-01-11 16:29:00,73.8,24.8,28.94,NW,319,4.9,16.8,16,0.00,,,0.00,VWS V14.00,2013-01-11 22:29:00,
2013-01-11 16:33:00,73.2,25.8,28.94,SE,146,8.3,10.1,17,0.00,,,0.00,VWS V14.00,2013-01-11 22:33:00,
2013-01-11 16:34:00,73.0,25.7,28.94,South,181,6.3,10.1,17,0.00,,,0.00,VWS V14.00,2013-01-11 22:34:00,
2013-01-11 16:38:00,72.3,25.1,28.94,South,170,5.4,10.5,17,0.00,,,0.00,VWS V14.00,2013-01-11 22:38:00,
2013-01-11 16:39:00,72.3,25.1,28.94,SSE,167,7.6,10.5,17,0.00,,,0.00,VWS V14.00,2013-01-11 22:39:00,
2013-01-11 16:41:00,72.0,24.8,28.94,SSE,163,5.8,12.8,17,0.00,,,0.00,VWS V14.00,2013-01-11 22:41:00,
2013-01-11 16:44:00,71.8,24.7,28.94,SSE,152,8.1,12.8,17,0.00,,,0.00,VWS V14.00,2013-01-11 22:44:00,
2013-01-11 16:46:00,71.6,24.5,28.94,SSW,201,4.0,12.8,17,0.00,,,0.00,VWS V14.00,2013-01-11 22:46:00,
2013-01-11 16:49:00,71.4,24.4,28.94,South,176,8.1,12.8,17,0.00,,,0.00,VWS V14.00,2013-01-11 22:49:00,
2013-01-11 16:51:00,71.4,24.4,28.94,SSE,156,10.5,12.8,17,0.00,,,0.00,VWS V14.00,2013-01-11 22:51:00,
2013-01-11 16:54:00,71.1,24.1,28.94,South,183,8.3,12.8,17,0.00,,,0.00,VWS V14.00,2013-01-11 22:54:00,
2013-01-11 16:56:00,71.1,24.1,28.94,SW,214,5.8,12.8,17,0.00,,,0.00,VWS V14.00,2013-01-11 22:56:00,
2013-01-11 16:57:00,70.9,23.9,28.94,SSE,166,7.6,12.8,17,0.00,,,0.00,VWS V14.00,2013-01-11 22:57:00,
2013-01-11 17:00:00,70.9,23.9,28.94,South,183,4.0,12.8,17,0.00,,,0.00,VWS V14.00,2013-01-11 23:00:00,
2013-01-11 17:02:00,70.5,23.6,28.94,SSE,165,6.7,6.7,17,0.00,,,0.00,VWS V14.00,2013-01-11 23:02:00,
2013-01-11 17:07:00,70.3,23.5,28.94,South,173,5.8,11.0,17,0.00,,,0.00,VWS V14.00,2013-01-11 23:07:00,
2013-01-11 17:08:00,70.3,23.5,28.94,SSE,149,10.1,11.0,17,0.00,,,0.00,VWS V14.00,2013-01-11 23:08:00,
2013-01-11 17:09:00,70.3,23.5,28.94,South,178,8.3,11.0,17,0.00,,,0.00,VWS V14.00,2013-01-11 23:09:00,
2013-01-11 17:10:00,70.3,23.5,28.94,SE,144,8.7,11.0,17,0.00,,,0.00,VWS V14.00,2013-01-11 23:10:00,
2013-01-11 17:12:00,70.3,23.5,28.94,SSW,198,6.3,11.0,17,0.00,,,0.00,VWS V14.00,2013-01-11 23:12:00,
2013-01-11 17:13:00,70.3,23.5,28.94,South,170,8.7,11.0,17,0.00,,,0.00,VWS V14.00,2013-01-11 23:13:00,
2013-01-11 17:15:00,70.2,23.4,28.94,South,181,8.1,11.0,17,0.00,,,0.00,VWS V14.00,2013-01-11 23:15:00,
2013-01-11 17:16:00,70.2,23.4,28.94,SSW,197,7.6,7.6,17,0.00,,,0.00,VWS V14.00,2013-01-11 23:16:00,
2013-01-11 17:18:00,70.0,23.2,28.94,South,187,8.3,11.0,17,0.00,,,0.00,VWS V14.00,2013-01-11 23:18:00,
2013-01-11 17:20:00,70.0,23.2,28.94,South,185,8.3,11.0,17,0.00,,,0.00,VWS V14.00,2013-01-11 23:20:00,
2013-01-11 17:21:00,69.8,23.1,28.94,SSE,164,8.3,11.0,17,0.00,,,0.00,VWS V14.00,2013-01-11 23:21:00,
2013-01-11 17:23:00,69.6,24.3,28.94,South,169,5.4,11.0,18,0.00,,,0.00,VWS V14.00,2013-01-11 23:23:00,
2013-01-11 17:24:00,69.6,24.3,28.94,South,188,6.7,11.0,18,0.00,,,0.00,VWS V14.00,2013-01-11 23:24:00,
2013-01-11 17:25:00,69.6,24.3,28.94,South,172,8.1,14.1,18,0.00,,,0.00,VWS V14.00,2013-01-11 23:25:00,
2013-01-11 17:26:00,69.4,24.1,28.94,SSE,161,5.8,14.1,18,0.00,,,0.00,VWS V14.00,2013-01-11 23:26:00,
2013-01-11 17:28:00,69.3,24.0,28.94,SSE,149,6.3,14.1,18,0.00,,,0.00,VWS V14.00,2013-01-11 23:28:00,
2013-01-11 17:29:00,69.1,23.8,28.94,SSE,163,8.1,14.1,18,0.00,,,0.00,VWS V14.00,2013-01-11 23:29:00,
2013-01-11 17:32:00,68.9,23.7,28.94,SSW,203,8.7,8.7,18,0.00,,,0.00,VWS V14.00,2013-01-11 23:32:00,
2013-01-11 17:34:00,68.7,23.5,28.94,South,172,5.8,13.2,18,0.00,,,0.00,VWS V14.00,2013-01-11 23:34:00,
2013-01-11 17:35:00,68.7,23.5,28.94,SSE,159,9.6,13.2,18,0.00,,,0.00,VWS V14.00,2013-01-11 23:35:00,
2013-01-11 17:37:00,68.7,23.5,28.94,South,188,8.1,13.2,18,0.00,,,0.00,VWS V14.00,2013-01-11 23:37:00,
2013-01-11 17:39:00,68.4,23.2,28.94,South,178,10.1,13.2,18,0.00,,,0.00,VWS V14.00,2013-01-11 23:39:00,
2013-01-11 17:40:00,68.4,23.2,28.94,South,186,8.3,13.2,18,0.00,,,0.00,VWS V14.00,2013-01-11 23:40:00,
2013-01-11 17:42:00,68.2,23.1,28.94,SE,144,6.3,13.2,18,0.00,,,0.00,VWS V14.00,2013-01-11 23:42:00,
2013-01-11 17:43:00,68.2,23.1,28.94,South,172,8.3,13.2,18,0.00,,,0.00,VWS V14.00,2013-01-11 23:43:00,
2013-01-11 17:45:00,67.8,22.8,28.94,SSE,166,8.7,13.2,18,0.00,,,0.00,VWS V14.00,2013-01-11 23:45:00,
2013-01-11 17:46:00,67.8,22.8,28.94,SSE,163,10.1,13.2,18,0.00,,,0.00,VWS V14.00,2013-01-11 23:46:00,
2013-01-11 17:47:00,67.6,22.6,28.94,South,184,10.1,10.1,18,0.00,,,0.00,VWS V14.00,2013-01-11 23:47:00,
2013-01-11 17:48:00,67.8,22.8,28.94,SE,146,5.8,10.1,18,0.00,,,0.00,VWS V14.00,2013-01-11 23:48:00,
2013-01-11 17:51:00,67.6,23.9,28.94,South,184,10.1,12.8,19,0.00,,,0.00,VWS V14.00,2013-01-11 23:51:00,
2013-01-11 17:54:00,67.6,23.9,28.94,South,180,11.0,13.6,19,0.00,,,0.00,VWS V14.00,2013-01-11 23:54:00,
2013-01-11 17:57:00,67.6,23.9,28.94,South,173,8.1,14.1,19,0.00,,,0.00,VWS V14.00,2013-01-11 23:57:00,
2013-01-11 17:58:00,67.5,23.8,28.94,SSW,194,8.3,14.1,19,0.00,,,0.00,VWS V14.00,2013-01-11 23:58:00,
2013-01-11 17:59:00,67.5,23.8,28.94,SSW,203,8.1,14.1,19,0.00,,,0.00,VWS V14.00,2013-01-11 23:59:00,
2013-01-11 18:00:00,67.5,23.8,28.94,SSW,206,8.3,14.1,19,0.00,,,0.00,VWS V14.00,2013-01-12 00:00:00,
2013-01-11 18:03:00,67.3,23.6,28.97,SSE,168,12.3,12.3,19,0.00,,,0.00,VWS V14.00,2013-01-12 00:03:00,
2013-01-11 18:04:00,67.3,23.6,28.97,South,182,10.5,12.3,19,0.00,,,0.00,VWS V14.00,2013-01-12 00:04:00,
2013-01-11 18:06:00,67.3,23.6,28.97,South,189,11.0,16.3,19,0.00,,,0.00,VWS V14.00,2013-01-12 00:06:00,
2013-01-11 18:08:00,67.1,23.5,28.97,South,173,5.8,16.3,19,0.00,,,0.00,VWS V14.00,2013-01-12 00:08:00,
2013-01-11 18:09:00,67.1,23.5,28.97,SSW,195,12.8,16.3,19,0.00,,,0.00,VWS V14.00,2013-01-12 00:09:00,
2013-01-11 18:11:00,67.1,23.5,28.97,South,174,8.1,16.3,19,0.00,,,0.00,VWS V14.00,2013-01-12 00:11:00,
2013-01-11 18:14:00,67.1,23.5,28.97,South,174,11.0,16.3,19,0.00,,,0.00,VWS V14.00,2013-01-12 00:14:00,
2013-01-11 18:15:00,66.9,23.4,28.97,SSE,168,8.1,16.3,19,0.00,,,0.00,VWS V14.00,2013-01-12 00:15:00,
2013-01-11 18:16:00,66.9,23.4,28.97,South,179,7.6,8.3,19,0.00,,,0.00,VWS V14.00,2013-01-12 00:16:00,
2013-01-11 18:17:00,66.9,23.4,28.97,SSW,207,11.0,11.0,19,0.00,,,0.00,VWS V14.00,2013-01-12 00:17:00,
2013-01-11 18:22:00,66.9,23.4,28.97,SSW,192,8.1,15.0,19,0.00,,,0.00,VWS V14.00,2013-01-12 00:22:00,
2013-01-11 18:23:00,66.9,23.4,28.97,SSW,195,8.7,15.0,19,0.00,,,0.00,VWS V14.00,2013-01-12 00:23:00,
2013-01-11 18:25:00,66.9,23.4,28.97,South,177,8.7,15.0,19,0.00,,,0.00,VWS V14.00,2013-01-12 00:25:00,
2013-01-11 18:27:00,66.7,23.2,28.97,South,173,8.1,15.0,19,0.00,,,0.00,VWS V14.00,2013-01-12 00:27:00,
2013-01-11 18:28:00,66.7,23.2,28.97,SSW,200,5.8,15.0,19,0.00,,,0.00,VWS V14.00,2013-01-12 00:28:00,
2013-01-11 18:29:00,66.7,23.2,28.97,South,176,8.7,15.0,19,0.00,,,0.00,VWS V14.00,2013-01-12 00:29:00,
2013-01-11 18:30:00,66.6,23.0,28.97,South,186,10.1,15.0,19,0.00,,,0.00,VWS V14.00,2013-01-12 00:30:00,
2013-01-11 18:33:00,66.6,23.0,28.97,SSE,167,6.3,11.0,19,0.00,,,0.00,VWS V14.00,2013-01-12 00:33:00,
2013-01-11 18:35:00,66.6,23.0,28.97,South,187,8.3,11.0,19,0.00,,,0.00,VWS V14.00,2013-01-12 00:35:00,
2013-01-11 18:39:00,66.2,24.0,28.97,SSE,163,8.7,11.0,20,0.00,,,0.00,VWS V14.00,2013-01-12 00:39:00,
2013-01-11 18:40:00,66.4,24.1,28.97,South,183,8.3,11.0,20,0.00,,,0.00,VWS V14.00,2013-01-12 00:40:00,
2013-01-11 18:42:00,66.4,24.1,28.97,South,179,6.3,11.0,20,0.00,,,0.00,VWS V14.00,2013-01-12 00:42:00,
2013-01-11 18:44:00,66.2,24.0,28.97,South,178,6.3,11.0,20,0.00,,,0.00,VWS V14.00,2013-01-12 00:44:00,
2013-01-11 18:46:00,66.2,24.0,28.97,South,175,5.4,6.3,20,0.00,,,0.00,VWS V14.00,2013-01-12 00:46:00,
2013-01-11 18:48:00,66.0,23.8,28.97,SSE,165,8.1,8.1,20,0.00,,,0.00,VWS V14.00,2013-01-12 00:48:00,
2013-01-11 18:49:00,66.0,23.8,28.97,South,177,4.0,8.1,20,0.00,,,0.00,VWS V14.00,2013-01-12 00:49:00,
2013-01-11 18:50:00,66.0,23.8,28.97,South,177,4.0,8.1,20,0.00,,,0.00,VWS V14.00,2013-01-12 00:50:00,
2013-01-11 18:52:00,65.7,23.5,28.97,South,171,5.8,8.1,20,0.00,,,0.00,VWS V14.00,2013-01-12 00:52:00,
2013-01-11 18:53:00,65.7,24.7,28.97,SSE,155,5.4,8.1,21,0.00,,,0.00,VWS V14.00,2013-01-12 00:53:00,
2013-01-11 18:54:00,65.5,24.5,28.97,SSE,168,4.0,8.1,21,0.00,,,0.00,VWS V14.00,2013-01-12 00:54:00,
2013-01-11 18:55:00,65.5,24.5,28.97,South,175,5.4,8.1,21,0.00,,,0.00,VWS V14.00,2013-01-12 00:55:00,
2013-01-11 18:57:00,65.5,24.5,28.97,South,177,5.8,8.1,21,0.00,,,0.00,VWS V14.00,2013-01-12 00:57:00,
2013-01-11 18:58:00,65.5,24.5,28.97,South,173,5.4,8.1,21,0.00,,,0.00,VWS V14.00,2013-01-12 00:58:00,
2013-01-11 19:00:00,65.5,24.5,28.97,South,175,3.6,8.1,21,0.00,,,0.00,VWS V14.00,2013-01-12 01:00:00,
2013-01-11 19:01:00,65.3,24.4,28.97,SSW,198,3.1,4.0,21,0.00,,,0.00,VWS V14.00,2013-01-12 01:01:00,
2013-01-11 19:03:00,65.3,24.4,28.97,South,172,2.7,7.2,21,0.00,,,0.00,VWS V14.00,2013-01-12 01:03:00,
2013-01-11 19:05:00,65.3,24.4,28.97,South,179,3.1,7.2,21,0.00,,,0.00,VWS V14.00,2013-01-12 01:05:00,
2013-01-11 19:07:00,65.7,25.8,28.97,South,178,6.3,7.2,22,0.00,,,0.00,VWS V14.00,2013-01-12 01:07:00,
2013-01-11 19:09:00,65.3,25.5,28.97,SSE,166,3.6,7.6,22,0.00,,,0.00,VWS V14.00,2013-01-12 01:09:00,
2013-01-11 19:11:00,65.3,25.5,28.97,South,191,6.3,7.6,22,0.00,,,0.00,VWS V14.00,2013-01-12 01:11:00,
2013-01-11 19:12:00,65.5,25.7,28.97,SSW,192,6.3,7.6,22,0.00,,,0.00,VWS V14.00,2013-01-12 01:12:00,
2013-01-11 19:13:00,65.5,25.7,28.97,SSW,192,3.6,7.6,22,0.00,,,0.00,VWS V14.00,2013-01-12 01:13:00,
2013-01-11 19:15:00,65.5,25.7,28.97,South,186,4.9,7.6,22,0.00,,,0.00,VWS V14.00,2013-01-12 01:15:00,
2013-01-11 19:17:00,65.5,25.7,28.97,South,178,5.4,5.4,22,0.00,,,0.00,VWS V14.00,2013-01-12 01:17:00,
2013-01-11 19:18:00,65.5,25.7,28.97,South,175,6.3,7.6,22,0.00,,,0.00,VWS V14.00,2013-01-12 01:18:00,
2013-01-11 19:19:00,65.5,25.7,28.97,South,180,6.3,7.6,22,0.00,,,0.00,VWS V14.00,2013-01-12 01:19:00,
2013-01-11 19:20:00,65.7,25.8,28.97,South,173,6.3,8.1,22,0.00,,,0.00,VWS V14.00,2013-01-12 01:20:00,
2013-01-11 19:23:00,65.7,25.8,28.97,South,184,5.4,8.1,22,0.00,,,0.00,VWS V14.00,2013-01-12 01:23:00,
2013-01-11 19:24:00,65.8,26.0,28.97,SSE,157,5.8,8.1,22,0.00,,,0.00,VWS V14.00,2013-01-12 01:24:00,
2013-01-11 19:27:00,65.7,25.8,28.97,SSW,204,4.9,8.1,22,0.00,,,0.00,VWS V14.00,2013-01-12 01:27:00,
2013-01-11 19:28:00,65.7,25.8,28.97,SSW,196,5.4,8.1,22,0.00,,,0.00,VWS V14.00,2013-01-12 01:28:00,
2013-01-11 19:29:00,65.5,25.7,28.97,South,188,3.6,8.1,22,0.00,,,0.00,VWS V14.00,2013-01-12 01:29:00,
2013-01-11 19:33:00,65.3,26.6,28.94,SSW,209,4.0,4.0,23,0.00,,,0.00,VWS V14.00,2013-01-12 01:33:00,
2013-01-11 19:34:00,65.5,26.7,28.94,SSW,194,6.7,7.2,23,0.00,,,0.00,VWS V14.00,2013-01-12 01:34:00,
2013-01-11 19:35:00,65.7,26.9,28.94,South,176,4.0,9.2,23,0.00,,,0.00,VWS V14.00,2013-01-12 01:35:00,
2013-01-11 19:38:00,65.5,26.7,28.94,South,177,3.1,9.2,23,0.00,,,0.00,VWS V14.00,2013-01-12 01:38:00,
2013-01-11 19:39:00,65.5,26.7,28.94,South,175,4.0,9.2,23,0.00,,,0.00,VWS V14.00,2013-01-12 01:39:00,
2013-01-11 19:40:00,65.5,26.7,28.94,South,176,4.0,9.2,23,0.00,,,0.00,VWS V14.00,2013-01-12 01:40:00,
2013-01-11 19:41:00,65.1,26.4,28.94,South,176,0.0,9.2,23,0.00,,,0.00,VWS V14.00,2013-01-12 01:41:00,
2013-01-11 19:43:00,64.8,26.1,28.94,South,176,0.0,9.2,23,0.00,,,0.00,VWS V14.00,2013-01-12 01:43:00,
2013-01-11 19:45:00,64.8,26.1,28.94,South,181,0.0,9.2,23,0.00,,,0.00,VWS V14.00,2013-01-12 01:45:00,
2013-01-11 19:46:00,64.8,27.2,28.97,SSW,202,4.0,4.0,24,0.00,,,0.00,VWS V14.00,2013-01-12 01:46:00,
2013-01-11 19:48:00,64.6,27.0,28.97,SSW,202,0.0,4.0,24,0.00,,,0.00,VWS V14.00,2013-01-12 01:48:00,
2013-01-11 19:51:00,64.6,28.0,28.97,SSW,202,0.0,4.0,25,0.00,,,0.00,VWS V14.00,2013-01-12 01:51:00,
2013-01-11 19:52:00,64.4,27.8,28.97,SSW,202,0.0,4.0,25,0.00,,,0.00,VWS V14.00,2013-01-12 01:52:00,
2013-01-11 19:53:00,64.4,27.8,28.97,SSW,202,0.0,4.0,25,0.00,,,0.00,VWS V14.00,2013-01-12 01:53:00,
2013-01-11 19:54:00,64.4,27.8,28.97,SSW,206,4.9,4.9,25,0.00,,,0.00,VWS V14.00,2013-01-12 01:54:00,
2013-01-11 19:57:00,64.6,28.0,28.97,South,189,4.9,5.8,25,0.00,,,0.00,VWS V14.00,2013-01-12 01:57:00,
2013-01-11 19:59:00,64.9,29.3,28.97,SSW,203,4.0,5.8,26,0.00,,,0.00,VWS V14.00,2013-01-12 01:59:00,
2013-01-11 20:00:00,65.1,28.5,28.97,SSW,202,4.9,5.8,25,0.00,,,0.00,VWS V14.00,2013-01-12 02:00:00,
2013-01-11 20:02:00,65.3,27.6,28.97,SSW,213,6.3,6.3,24,0.00,,,0.00,VWS V14.00,2013-01-12 02:02:00,
2013-01-11 20:03:00,65.3,27.6,28.97,SSW,200,5.8,6.3,24,0.00,,,0.00,VWS V14.00,2013-01-12 02:03:00,
2013-01-11 20:05:00,65.3,26.6,28.97,South,189,4.0,6.3,23,0.00,,,0.00,VWS V14.00,2013-01-12 02:05:00,
2013-01-11 20:06:00,65.1,26.4,28.97,South,177,4.9,6.3,23,0.00,,,0.00,VWS V14.00,2013-01-12 02:06:00,
2013-01-11 20:08:00,64.9,27.3,28.97,South,174,0.0,6.3,24,0.00,,,0.00,VWS V14.00,2013-01-12 02:08:00,
2013-01-11 20:11:00,64.8,28.1,28.97,South,188,5.4,6.3,25,0.00,,,0.00,VWS V14.00,2013-01-12 02:11:00,
2013-01-11 20:12:00,64.8,28.1,28.97,SSW,194,2.7,6.3,25,0.00,,,0.00,VWS V14.00,2013-01-12 02:12:00,
2013-01-11 20:14:00,64.6,28.0,28.97,South,185,4.0,6.3,25,0.00,,,0.00,VWS V14.00,2013-01-12 02:14:00,
2013-01-11 20:15:00,64.6,28.0,28.97,South,185,3.6,6.3,25,0.00,,,0.00,VWS V14.00,2013-01-12 02:15:00,
2013-01-11 20:16:00,64.6,29.0,28.94,South,188,4.0,4.0,26,0.00,,,0.00,VWS V14.00,2013-01-12 02:16:00,
2013-01-11 20:19:00,64.2,28.6,28.94,South,188,0.0,4.0,26,0.00,,,0.00,VWS V14.00,2013-01-12 02:19:00,
2013-01-11 20:20:00,64.0,28.5,28.94,South,188,0.0,4.0,26,0.00,,,0.00,VWS V14.00,2013-01-12 02:20:00,
2013-01-11 20:21:00,63.9,28.3,28.94,South,188,0.0,4.0,26,0.00,,,0.00,VWS V14.00,2013-01-12 02:21:00,
2013-01-11 20:24:00,63.5,28.0,28.94,South,188,0.0,4.0,26,0.00,,,0.00,VWS V14.00,2013-01-12 02:24:00,
2013-01-11 20:25:00,63.5,28.0,28.94,South,188,0.0,4.0,26,0.00,,,0.00,VWS V14.00,2013-01-12 02:25:00,
2013-01-11 20:27:00,63.1,29.5,28.94,South,188,0.0,4.0,28,0.00,,,0.00,VWS V14.00,2013-01-12 02:27:00,
2013-01-11 20:28:00,63.3,30.5,28.94,South,188,0.0,4.0,29,0.00,,,0.00,VWS V14.00,2013-01-12 02:28:00,
2013-01-11 20:30:00,63.1,30.4,28.94,South,188,0.0,4.0,29,0.00,,,0.00,VWS V14.00,2013-01-12 02:30:00,
2013-01-11 20:33:00,63.3,30.5,28.94,WNW,295,4.0,4.0,29,0.00,,,0.00,VWS V14.00,2013-01-12 02:33:00,
2013-01-11 20:35:00,63.7,30.0,28.94,WNW,295,3.1,4.9,28,0.00,,,0.00,VWS V14.00,2013-01-12 02:35:00,
2013-01-11 20:36:00,63.7,30.0,28.94,WNW,295,0.0,4.9,28,0.00,,,0.00,VWS V14.00,2013-01-12 02:36:00,
2013-01-11 20:39:00,64.0,30.3,28.94,WNW,291,0.0,4.9,28,0.00,,,0.00,VWS V14.00,2013-01-12 02:39:00,
2013-01-11 20:40:00,64.2,30.5,28.94,WNW,291,0.0,4.9,28,0.00,,,0.00,VWS V14.00,2013-01-12 02:40:00,
2013-01-11 20:44:00,64.2,30.5,28.94,WNW,291,0.0,4.9,28,0.00,,,0.00,VWS V14.00,2013-01-12 02:44:00,
2013-01-11 20:45:00,64.2,30.5,28.94,SSW,204,2.7,4.9,28,0.00,,,0.00,VWS V14.00,2013-01-12 02:45:00,
2013-01-11 20:46:00,64.2,30.5,28.94,SSW,204,2.7,4.9,28,0.00,,,0.00,VWS V14.00,2013-01-12 02:46:00,
2013-01-11 20:49:00,64.4,30.6,28.94,South,180,3.1,4.9,28,0.00,,,0.00,VWS V14.00,2013-01-12 02:49:00,
2013-01-11 20:50:00,64.4,30.6,28.94,South,181,3.6,6.3,28,0.00,,,0.00,VWS V14.00,2013-01-12 02:50:00,
2013-01-11 20:52:00,64.4,30.6,28.94,South,180,3.6,6.3,28,0.00,,,0.00,VWS V14.00,2013-01-12 02:52:00,
2013-01-11 20:53:00,64.2,30.5,28.94,South,183,4.9,6.3,28,0.00,,,0.00,VWS V14.00,2013-01-12 02:53:00,
2013-01-11 20:55:00,64.2,31.3,28.94,SSW,192,3.6,6.3,29,0.00,,,0.00,VWS V14.00,2013-01-12 02:55:00,
2013-01-11 20:56:00,64.4,31.5,28.94,South,186,5.4,6.3,29,0.00,,,0.00,VWS V14.00,2013-01-12 02:56:00,
2013-01-11 20:58:00,64.2,31.3,28.94,SSW,203,4.0,6.3,29,0.00,,,0.00,VWS V14.00,2013-01-12 02:58:00,
2013-01-11 21:01:00,64.0,31.2,28.94,SSW,200,2.7,6.3,29,0.00,,,0.00,VWS V14.00,2013-01-12 03:01:00,
2013-01-11 21:03:00,64.0,32.0,28.94,South,174,4.9,4.9,30,0.00,,,0.00,VWS V14.00,2013-01-12 03:03:00,
2013-01-11 21:06:00,63.9,31.9,28.94,South,179,2.2,4.9,30,0.00,,,0.00,VWS V14.00,2013-01-12 03:06:00,
2013-01-11 21:07:00,63.9,31.9,28.94,South,179,0.0,4.9,30,0.00,,,0.00,VWS V14.00,2013-01-12 03:07:00,
2013-01-11 21:09:00,63.7,31.7,28.94,South,179,0.0,4.9,30,0.00,,,0.00,VWS V14.00,2013-01-12 03:09:00,
2013-01-11 21:11:00,63.5,31.5,28.94,South,179,0.0,4.9,30,0.00,,,0.00,VWS V14.00,2013-01-12 03:11:00,
2013-01-11 21:13:00,63.1,31.2,28.94,South,179,0.0,4.9,30,0.00,,,0.00,VWS V14.00,2013-01-12 03:13:00,
2013-01-11 21:14:00,63.1,31.2,28.94,South,179,0.0,4.9,30,0.00,,,0.00,VWS V14.00,2013-01-12 03:14:00,
2013-01-11 21:16:00,63.3,31.4,28.94,South,179,0.0,0.0,30,0.00,,,0.00,VWS V14.00,2013-01-12 03:16:00,
2013-01-11 21:17:00,63.3,31.4,28.94,South,179,0.0,0.0,30,0.00,,,0.00,VWS V14.00,2013-01-12 03:17:00,
2013-01-11 21:19:00,63.5,32.3,28.94,South,188,0.0,0.0,31,0.00,,,0.00,VWS V14.00,2013-01-12 03:19:00,
2013-01-11 21:20:00,63.5,32.3,28.94,South,188,0.0,0.0,31,0.00,,,0.00,VWS V14.00,2013-01-12 03:20:00,
2013-01-11 21:22:00,63.7,32.5,28.94,South,188,0.0,0.0,31,0.00,,,0.00,VWS V14.00,2013-01-12 03:22:00,
2013-01-11 21:23:00,63.7,32.5,28.94,South,188,0.0,0.0,31,0.00,,,0.00,VWS V14.00,2013-01-12 03:23:00,
2013-01-11 21:24:00,63.7,31.7,28.94,South,187,0.0,0.0,30,0.00,,,0.00,VWS V14.00,2013-01-12 03:24:00,
2013-01-11 21:28:00,64.0,32.8,28.94,South,187,0.0,0.0,31,0.00,,,0.00,VWS V14.00,2013-01-12 03:28:00,
2013-01-11 21:29:00,64.0,32.8,28.94,South,187,0.0,0.0,31,0.00,,,0.00,VWS V14.00,2013-01-12 03:29:00,
2013-01-11 21:30:00,64.2,33.0,28.94,South,187,0.0,0.0,31,0.00,,,0.00,VWS V14.00,2013-01-12 03:30:00,
2013-01-11 21:31:00,64.2,33.0,28.97,South,187,0.0,0.0,31,0.00,,,0.00,VWS V14.00,2013-01-12 03:31:00,
2013-01-11 21:34:00,64.4,32.3,28.97,SSW,194,3.1,4.0,30,0.00,,,0.00,VWS V14.00,2013-01-12 03:34:00,
2013-01-11 21:35:00,64.4,32.3,28.97,South,184,4.9,4.9,30,0.00,,,0.00,VWS V14.00,2013-01-12 03:35:00,
2013-01-11 21:36:00,64.6,32.5,28.97,SSW,204,3.6,4.9,30,0.00,,,0.00,VWS V14.00,2013-01-12 03:36:00,
2013-01-11 21:40:00,64.8,31.8,28.97,South,180,2.2,4.9,29,0.00,,,0.00,VWS V14.00,2013-01-12 03:40:00,
2013-01-11 21:41:00,64.8,31.8,28.97,South,180,0.0,4.9,29,0.00,,,0.00,VWS V14.00,2013-01-12 03:41:00,
2013-01-11 21:45:00,64.8,30.9,28.97,South,180,0.0,4.9,28,0.00,,,0.00,VWS V14.00,2013-01-12 03:45:00,
2013-01-11 21:46:00,64.8,30.9,28.97,South,180,0.0,4.9,28,0.00,,,0.00,VWS V14.00,2013-01-12 03:46:00,
2013-01-11 21:47:00,64.8,30.9,28.97,South,180,0.0,0.0,28,0.00,,,0.00,VWS V14.00,2013-01-12 03:47:00,
2013-01-11 21:51:00,64.8,31.8,28.97,South,171,5.8,5.8,29,0.00,,,0.00,VWS V14.00,2013-01-12 03:51:00,
2013-01-11 21:52:00,64.8,31.8,28.97,South,171,2.7,5.8,29,0.00,,,0.00,VWS V14.00,2013-01-12 03:52:00,
2013-01-11 21:53:00,64.8,31.8,28.97,South,171,2.7,5.8,29,0.00,,,0.00,VWS V14.00,2013-01-12 03:53:00,
2013-01-11 21:57:00,64.8,30.9,28.97,South,171,0.0,5.8,28,0.00,,,0.00,VWS V14.00,2013-01-12 03:57:00,
2013-01-11 21:59:00,64.6,30.8,28.97,South,171,0.0,5.8,28,0.00,,,0.00,VWS V14.00,2013-01-12 03:59:00,
2013-01-11 22:03:00,64.6,31.6,28.97,South,171,0.0,0.0,29,0.00,,,0.00,VWS V14.00,2013-01-12 04:03:00,
2013-01-11 22:04:00,64.6,31.6,28.97,South,171,0.0,0.0,29,0.00,,,0.00,VWS V14.00,2013-01-12 04:04:00,
2013-01-11 22:05:00,64.6,31.6,28.97,South,171,0.0,0.0,29,0.00,,,0.00,VWS V14.00,2013-01-12 04:05:00,
2013-01-11 22:08:00,64.6,31.6,28.97,South,171,0.0,0.0,29,0.00,,,0.00,VWS V14.00,2013-01-12 04:08:00,
2013-01-11 22:09:00,64.6,31.6,28.97,South,171,0.0,0.0,29,0.00,,,0.00,VWS V14.00,2013-01-12 04:09:00,
2013-01-11 22:10:00,64.6,31.6,28.97,South,171,0.0,0.0,29,0.00,,,0.00,VWS V14.00,2013-01-12 04:10:00,
2013-01-11 22:14:00,64.4,31.5,28.97,South,171,0.0,0.0,29,0.00,,,0.00,VWS V14.00,2013-01-12 04:14:00,
2013-01-11 22:15:00,64.4,31.5,28.97,South,171,0.0,0.0,29,0.00,,,0.00,VWS V14.00,2013-01-12 04:15:00,
2013-01-11 22:16:00,64.4,31.5,28.94,South,171,0.0,0.0,29,0.00,,,0.00,VWS V14.00,2013-01-12 04:16:00,
2013-01-11 22:20:00,64.2,31.3,28.94,South,171,0.0,0.0,29,0.00,,,0.00,VWS V14.00,2013-01-12 04:20:00,
2013-01-11 22:21:00,64.2,31.3,28.94,South,171,0.0,0.0,29,0.00,,,0.00,VWS V14.00,2013-01-12 04:21:00,
2013-01-11 22:22:00,64.2,31.3,28.94,South,171,0.0,0.0,29,0.00,,,0.00,VWS V14.00,2013-01-12 04:22:00,
2013-01-11 22:26:00,64.2,31.3,28.94,South,171,0.0,0.0,29,0.00,,,0.00,VWS V14.00,2013-01-12 04:26:00,
2013-01-11 22:27:00,64.2,31.3,28.94,South,171,0.0,0.0,29,0.00,,,0.00,VWS V14.00,2013-01-12 04:27:00,
2013-01-11 22:28:00,64.2,32.2,28.94,South,171,0.0,0.0,30,0.00,,,0.00,VWS V14.00,2013-01-12 04:28:00,
2013-01-11 22:32:00,64.2,32.2,28.97,South,171,0.0,0.0,30,0.00,,,0.00,VWS V14.00,2013-01-12 04:32:00,
2013-01-11 22:35:00,64.0,32.0,28.97,South,171,0.0,0.0,30,0.00,,,0.00,VWS V14.00,2013-01-12 04:35:00,
2013-01-11 22:38:00,64.0,32.0,28.97,South,171,0.0,0.0,30,0.00,,,0.00,VWS V14.00,2013-01-12 04:38:00,
2013-01-11 22:39:00,64.0,32.0,28.97,South,171,0.0,0.0,30,0.00,,,0.00,VWS V14.00,2013-01-12 04:39:00,
2013-01-11 22:41:00,64.0,32.8,28.97,South,171,0.0,0.0,31,0.00,,,0.00,VWS V14.00,2013-01-12 04:41:00,
2013-01-11 22:43:00,64.0,32.8,28.97,South,171,0.0,0.0,31,0.00,,,0.00,VWS V14.00,2013-01-12 04:43:00,
2013-01-11 22:44:00,64.0,32.8,28.97,South,171,0.0,0.0,31,0.00,,,0.00,VWS V14.00,2013-01-12 04:44:00,
2013-01-11 22:45:00,64.0,32.8,28.97,South,171,0.0,0.0,31,0.00,,,0.00,VWS V14.00,2013-01-12 04:45:00,
2013-01-11 22:46:00,64.0,32.8,28.97,South,171,0.0,0.0,31,0.00,,,0.00,VWS V14.00,2013-01-12 04:46:00,
2013-01-11 22:48:00,64.0,32.8,28.97,South,171,0.0,0.0,31,0.00,,,0.00,VWS V14.00,2013-01-12 04:48:00,
2013-01-11 22:50:00,64.0,32.8,28.97,South,171,0.0,0.0,31,0.00,,,0.00,VWS V14.00,2013-01-12 04:50:00,
2013-01-11 22:51:00,63.9,32.7,28.97,South,171,0.0,0.0,31,0.00,,,0.00,VWS V14.00,2013-01-12 04:51:00,
2013-01-11 22:52:00,63.9,32.7,28.97,South,171,0.0,0.0,31,0.00,,,0.00,VWS V14.00,2013-01-12 04:52:00,
2013-01-11 22:53:00,63.9,32.7,28.97,South,171,0.0,0.0,31,0.00,,,0.00,VWS V14.00,2013-01-12 04:53:00,
2013-01-11 22:55:00,63.9,32.7,28.97,South,171,0.0,0.0,31,0.00,,,0.00,VWS V14.00,2013-01-12 04:55:00,
2013-01-11 22:56:00,63.9,32.7,28.97,South,171,0.0,0.0,31,0.00,,,0.00,VWS V14.00,2013-01-12 04:56:00,
2013-01-11 22:58:00,63.9,32.7,28.97,South,171,0.0,0.0,31,0.00,,,0.00,VWS V14.00,2013-01-12 04:58:00,
2013-01-11 23:00:00,63.9,32.7,28.97,South,171,0.0,0.0,31,0.00,,,0.00,VWS V14.00,2013-01-12 05:00:00,
2013-01-11 23:01:00,63.9,32.7,28.97,South,171,0.0,0.0,31,0.00,,,0.00,VWS V14.00,2013-01-12 05:01:00,
2013-01-11 23:03:00,63.9,33.5,28.97,South,171,0.0,0.0,32,0.00,,,0.00,VWS V14.00,2013-01-12 05:03:00,
2013-01-11 23:06:00,63.9,33.5,28.97,South,171,0.0,0.0,32,0.00,,,0.00,VWS V14.00,2013-01-12 05:06:00,
2013-01-11 23:07:00,63.9,33.5,28.97,South,171,0.0,0.0,32,0.00,,,0.00,VWS V14.00,2013-01-12 05:07:00,
2013-01-11 23:08:00,63.9,33.5,28.97,South,171,0.0,0.0,32,0.00,,,0.00,VWS V14.00,2013-01-12 05:08:00,
2013-01-11 23:12:00,63.9,34.2,28.97,South,171,0.0,0.0,33,0.00,,,0.00,VWS V14.00,2013-01-12 05:12:00,
2013-01-11 23:13:00,63.9,34.2,28.97,South,171,0.0,0.0,33,0.00,,,0.00,VWS V14.00,2013-01-12 05:13:00,
2013-01-11 23:17:00,63.9,34.2,28.94,South,171,0.0,0.0,33,0.00,,,0.00,VWS V14.00,2013-01-12 05:17:00,
2013-01-11 23:19:00,63.9,35.0,28.94,SSE,168,0.0,0.0,34,0.00,,,0.00,VWS V14.00,2013-01-12 05:19:00,
2013-01-11 23:22:00,63.9,35.0,28.94,SSE,158,0.0,0.0,34,0.00,,,0.00,VWS V14.00,2013-01-12 05:22:00,
2013-01-11 23:24:00,63.7,34.8,28.94,SSE,158,0.0,0.0,34,0.00,,,0.00,VWS V14.00,2013-01-12 05:24:00,
2013-01-11 23:26:00,63.9,35.0,28.94,SSE,158,0.0,2.2,34,0.00,,,0.00,VWS V14.00,2013-01-12 05:26:00,
2013-01-11 23:28:00,63.9,35.0,28.94,SSE,158,0.0,2.2,34,0.00,,,0.00,VWS V14.00,2013-01-12 05:28:00,
2013-01-11 23:31:00,63.9,35.7,28.94,SSE,159,0.0,0.0,35,0.00,,,0.00,VWS V14.00,2013-01-12 05:31:00,
2013-01-11 23:33:00,64.2,36.7,28.94,SSE,159,0.0,3.1,36,0.00,,,0.00,VWS V14.00,2013-01-12 05:33:00,
2013-01-11 23:35:00,64.2,36.7,28.94,SSE,159,0.0,3.1,36,0.00,,,0.00,VWS V14.00,2013-01-12 05:35:00,
2013-01-11 23:36:00,64.2,36.7,28.94,SSE,158,0.0,3.1,36,0.00,,,0.00,VWS V14.00,2013-01-12 05:36:00,
2013-01-11 23:37:00,64.2,36.7,28.94,SSE,159,0.0,3.1,36,0.00,,,0.00,VWS V14.00,2013-01-12 05:37:00,
2013-01-11 23:39:00,64.2,36.0,28.94,SSE,158,0.0,3.1,35,0.00,,,0.00,VWS V14.00,2013-01-12 05:39:00,
2013-01-11 23:41:00,64.2,36.0,28.94,SSE,159,0.0,3.1,35,0.00,,,0.00,VWS V14.00,2013-01-12 05:41:00,
2013-01-11 23:43:00,64.4,36.2,28.94,SSE,159,2.2,3.6,35,0.00,,,0.00,VWS V14.00,2013-01-12 05:43:00,
2013-01-11 23:45:00,64.4,36.2,28.94,SSE,159,2.2,3.6,35,0.00,,,0.00,VWS V14.00,2013-01-12 05:45:00,
2013-01-11 23:46:00,64.2,36.7,28.94,SSE,159,0.0,0.0,36,0.00,,,0.00,VWS V14.00,2013-01-12 05:46:00,
2013-01-11 23:48:00,64.2,36.7,28.94,SSE,159,0.0,0.0,36,0.00,,,0.00,VWS V14.00,2013-01-12 05:48:00,
2013-01-11 23:51:00,64.2,36.7,28.94,SSE,159,0.0,0.0,36,0.00,,,0.00,VWS V14.00,2013-01-12 05:51:00,
2013-01-11 23:53:00,64.2,37.4,28.94,SSE,159,0.0,0.0,37,0.00,,,0.00,VWS V14.00,2013-01-12 05:53:00,
2013-01-11 23:56:00,64.0,37.3,28.94,SSE,159,0.0,0.0,37,0.00,,,0.00,VWS V14.00,2013-01-12 05:56:00,
2013-01-11 23:57:00,64.0,36.6,28.94,SSE,159,0.0,0.0,36,0.00,,,0.00,VWS V14.00,2013-01-12 05:57:00,
2013-01-11 23:59:00,64.0,36.6,28.94,SSE,159,0.0,2.7,36,0.00,,,0.00,VWS V14.00,2013-01-12 05:59:00,